Time,TemperatureF,DewpointF,PressureIn,WindDirection,WindDirectionDegrees,WindSpeedMPH,WindSpeedGustMPH,Humidity,HourlyPrecipIn,Conditions,Clouds,dailyrainin,SoftwareType,DateUTC
2013-09-11 00:01:00,78.6,73.4,30.00,ENE,58,5.0,5.0,84,0.00,,,0.00,Wunderground v.1.15,2013-09-11 04:01:00,
2013-09-11 00:02:00,78.6,73.4,30.00,East,80,4.0,5.0,84,0.00,,,0.00,Wunderground v.1.15,2013-09-11 04:02:00,
2013-09-11 00:03:00,78.6,73.4,30.00,ENE,65,4.0,5.0,84,0.00,,,0.00,Wunderground v.1.15,2013-09-11 04:03:00,
2013-09-11 00:06:00,78.5,73.3,30.00,ENE,73,4.0,5.0,84,0.00,,,0.00,Wunderground v.1.15,2013-09-11 04:06:00,
2013-09-11 00:08:00,78.4,73.2,30.00,ENE,77,4.0,5.0,84,0.00,,,0.00,Wunderground v.1.15,2013-09-11 04:08:00,
2013-09-11 00:11:00,78.4,73.2,30.00,NE,34,3.0,5.0,84,0.00,,,0.00,Wunderground v.1.15,2013-09-11 04:11:00,
2013-09-11 00:14:00,78.3,73.1,30.00,ENE,58,5.0,5.0,84,0.00,,,0.00,Wunderground v.1.15,2013-09-11 04:14:00,
2013-09-11 00:15:00,78.3,73.1,30.00,ENE,68,5.0,5.0,84,0.00,,,0.00,Wunderground v.1.15,2013-09-11 04:15:00,
2013-09-11 00:16:00,78.3,73.1,30.00,NE,54,8.0,8.0,84,0.00,,,0.00,Wunderground v.1.15,2013-09-11 04:16:00,
2013-09-11 00:17:00,78.2,73.0,30.00,NE,50,5.0,8.0,84,0.00,,,0.00,Wunderground v.1.15,2013-09-11 04:17:00,
2013-09-11 00:18:00,78.2,73.0,30.00,ENE,60,5.0,8.0,84,0.00,,,0.00,Wunderground v.1.15,2013-09-11 04:18:00,
2013-09-11 00:19:00,78.2,73.0,30.00,NNE,29,2.0,8.0,84,0.00,,,0.00,Wunderground v.1.15,2013-09-11 04:19:00,
2013-09-11 00:23:00,78.1,73.2,29.99,East,88,2.0,4.0,85,0.00,,,0.00,Wunderground v.1.15,2013-09-11 04:23:00,
2013-09-11 00:24:00,78.1,73.2,29.99,ENE,71,4.0,4.0,85,0.00,,,0.00,Wunderground v.1.15,2013-09-11 04:24:00,
2013-09-11 00:28:00,77.9,73.0,29.99,ENE,67,3.0,6.0,85,0.00,,,0.00,Wunderground v.1.15,2013-09-11 04:28:00,
2013-09-11 00:29:00,77.9,73.0,29.99,NE,55,6.0,6.0,85,0.00,,,0.00,Wunderground v.1.15,2013-09-11 04:29:00,
2013-09-11 00:30:00,77.9,73.0,29.99,NE,49,5.0,5.0,85,0.00,,,0.00,Wunderground v.1.15,2013-09-11 04:30:00,
2013-09-11 00:33:00,77.9,73.0,29.99,NE,42,8.0,8.0,85,0.00,,,0.00,Wunderground v.1.15,2013-09-11 04:33:00,
2013-09-11 00:34:00,77.9,73.0,29.99,NE,50,3.0,8.0,85,0.00,,,0.00,Wunderground v.1.15,2013-09-11 04:34:00,
2013-09-11 00:36:00,77.8,72.9,29.99,ENE,68,3.0,8.0,85,0.00,,,0.00,Wunderground v.1.15,2013-09-11 04:36:00,
2013-09-11 00:39:00,77.7,72.8,29.99,ENE,69,4.0,8.0,85,0.00,,,0.00,Wunderground v.1.15,2013-09-11 04:39:00,
2013-09-11 00:42:00,77.7,72.8,29.99,NE,53,5.0,5.0,85,0.00,,,0.00,Wunderground v.1.15,2013-09-11 04:42:00,
2013-09-11 00:44:00,77.6,72.7,29.99,NE,37,2.0,5.0,85,0.00,,,0.00,Wunderground v.1.15,2013-09-11 04:44:00,
2013-09-11 00:46:00,77.6,72.7,29.99,NE,41,2.0,5.0,85,0.00,,,0.00,Wunderground v.1.15,2013-09-11 04:46:00,
2013-09-11 00:48:00,77.6,73.1,29.99,NE,49,1.0,5.0,86,0.00,,,0.00,Wunderground v.1.15,2013-09-11 04:48:00,
2013-09-11 00:49:00,77.5,73.0,29.99,ENE,66,3.0,5.0,86,0.00,,,0.00,Wunderground v.1.15,2013-09-11 04:49:00,
2013-09-11 00:55:00,77.4,72.9,29.99,NE,44,4.0,5.0,86,0.00,,,0.00,Wunderground v.1.15,2013-09-11 04:55:00,
2013-09-11 00:56:00,77.4,72.9,29.99,ENE,70,4.0,5.0,86,0.00,,,0.00,Wunderground v.1.15,2013-09-11 04:56:00,
2013-09-11 00:57:00,77.4,72.9,29.99,NE,49,1.0,5.0,86,0.00,,,0.00,Wunderground v.1.15,2013-09-11 04:57:00,
2013-09-11 01:01:00,77.3,72.8,29.98,NE,53,1.0,4.0,86,0.00,,,0.00,Wunderground v.1.15,2013-09-11 05:01:00,
2013-09-11 01:02:00,77.3,72.8,29.99,ENE,66,4.0,4.0,86,0.00,,,0.00,Wunderground v.1.15,2013-09-11 05:02:00,
2013-09-11 01:04:00,77.3,72.8,29.98,NE,43,5.0,7.0,86,0.00,,,0.00,Wunderground v.1.15,2013-09-11 05:04:00,
2013-09-11 01:05:00,77.2,72.7,29.98,NE,55,5.0,7.0,86,0.00,,,0.00,Wunderground v.1.15,2013-09-11 05:05:00,
2013-09-11 01:07:00,77.2,72.7,29.98,East,91,5.0,7.0,86,0.00,,,0.00,Wunderground v.1.15,2013-09-11 05:07:00,
2013-09-11 01:09:00,77.2,72.7,29.98,NNE,33,5.0,7.0,86,0.00,,,0.00,Wunderground v.1.15,2013-09-11 05:09:00,
2013-09-11 01:11:00,77.2,72.7,29.98,ENE,63,6.0,6.0,86,0.00,,,0.00,Wunderground v.1.15,2013-09-11 05:11:00,
2013-09-11 01:12:00,77.1,72.6,29.98,NE,55,4.0,6.0,86,0.00,,,0.00,Wunderground v.1.15,2013-09-11 05:12:00,
2013-09-11 01:16:00,77.1,72.9,29.98,NE,56,2.0,7.0,87,0.00,,,0.00,Wunderground v.1.15,2013-09-11 05:16:00,
2013-09-11 01:17:00,77.1,72.9,29.98,NE,49,3.0,7.0,87,0.00,,,0.00,Wunderground v.1.15,2013-09-11 05:17:00,
2013-09-11 01:21:00,77.0,72.8,29.98,NE,47,6.0,6.0,87,0.00,,,0.00,Wunderground v.1.15,2013-09-11 05:21:00,
2013-09-11 01:22:00,77.0,72.8,29.98,ENE,60,2.0,6.0,87,0.00,,,0.00,Wunderground v.1.15,2013-09-11 05:22:00,
2013-09-11 01:24:00,76.9,72.7,29.98,ENE,61,7.0,7.0,87,0.00,,,0.00,Wunderground v.1.15,2013-09-11 05:24:00,
2013-09-11 01:26:00,76.9,72.7,29.98,ENE,66,4.0,7.0,87,0.00,,,0.00,Wunderground v.1.15,2013-09-11 05:26:00,
2013-09-11 01:28:00,76.9,72.7,29.98,North,356,6.0,7.0,87,0.00,,,0.00,Wunderground v.1.15,2013-09-11 05:28:00,
2013-09-11 01:29:00,76.9,72.7,29.98,ENE,65,3.0,7.0,87,0.00,,,0.00,Wunderground v.1.15,2013-09-11 05:29:00,
2013-09-11 01:31:00,76.8,72.6,29.98,NNE,29,5.0,5.0,87,0.00,,,0.00,Wunderground v.1.15,2013-09-11 05:31:00,
2013-09-11 01:32:00,76.8,72.6,29.98,NE,44,6.0,6.0,87,0.00,,,0.00,Wunderground v.1.15,2013-09-11 05:32:00,
2013-09-11 01:33:00,76.8,73.0,29.98,North,355,4.0,6.0,88,0.00,,,0.00,Wunderground v.1.15,2013-09-11 05:33:00,
2013-09-11 01:35:00,76.8,73.0,29.98,NE,56,6.0,6.0,88,0.00,,,0.00,Wunderground v.1.15,2013-09-11 05:35:00,
2013-09-11 01:36:00,76.8,73.0,29.98,NE,39,4.0,6.0,88,0.00,,,0.00,Wunderground v.1.15,2013-09-11 05:36:00,
2013-09-11 01:40:00,76.8,73.0,29.98,ENE,64,5.0,5.0,88,0.00,,,0.00,Wunderground v.1.15,2013-09-11 05:40:00,
2013-09-11 01:43:00,76.7,72.9,29.98,ENE,60,5.0,5.0,88,0.00,,,0.00,Wunderground v.1.15,2013-09-11 05:43:00,
2013-09-11 01:47:00,76.7,72.9,29.98,NE,47,4.0,6.0,88,0.00,,,0.00,Wunderground v.1.15,2013-09-11 05:47:00,
2013-09-11 01:49:00,76.7,72.9,29.98,NE,51,4.0,6.0,88,0.00,,,0.00,Wunderground v.1.15,2013-09-11 05:49:00,
2013-09-11 01:50:00,76.7,72.9,29.98,NE,42,6.0,6.0,88,0.00,,,0.00,Wunderground v.1.15,2013-09-11 05:50:00,
2013-09-11 01:51:00,76.7,72.9,29.98,ENE,72,2.0,6.0,88,0.00,,,0.00,Wunderground v.1.15,2013-09-11 05:51:00,
2013-09-11 01:54:00,76.7,72.9,29.98,NE,44,3.0,6.0,88,0.00,,,0.00,Wunderground v.1.15,2013-09-11 05:54:00,
2013-09-11 01:55:00,76.7,72.9,29.98,NE,38,4.0,6.0,88,0.00,,,0.00,Wunderground v.1.15,2013-09-11 05:55:00,
2013-09-11 01:58:00,76.6,72.8,29.97,NNE,23,4.0,6.0,88,0.00,,,0.00,Wunderground v.1.15,2013-09-11 05:58:00,
2013-09-11 01:59:00,76.6,72.8,29.97,NE,39,3.0,6.0,88,0.00,,,0.00,Wunderground v.1.15,2013-09-11 05:59:00,
2013-09-11 02:01:00,76.6,72.8,29.97,ENE,71,1.0,3.0,88,0.00,,,0.00,Wunderground v.1.15,2013-09-11 06:01:00,
2013-09-11 02:02:00,76.6,72.8,29.97,ENE,72,1.0,4.0,88,0.00,,,0.00,Wunderground v.1.15,2013-09-11 06:02:00,
2013-09-11 02:03:00,76.5,72.7,29.97,ENE,67,4.0,4.0,88,0.00,,,0.00,Wunderground v.1.15,2013-09-11 06:03:00,
2013-09-11 02:04:00,76.5,72.7,29.97,ENE,68,4.0,4.0,88,0.00,,,0.00,Wunderground v.1.15,2013-09-11 06:04:00,
2013-09-11 02:06:00,76.5,72.7,29.97,ENE,63,3.0,4.0,88,0.00,,,0.00,Wunderground v.1.15,2013-09-11 06:06:00,
2013-09-11 02:07:00,76.4,72.6,29.97,NE,40,4.0,7.0,88,0.00,,,0.00,Wunderground v.1.15,2013-09-11 06:07:00,
2013-09-11 02:08:00,76.4,72.6,29.97,ENE,62,1.0,7.0,88,0.00,,,0.00,Wunderground v.1.15,2013-09-11 06:08:00,
2013-09-11 02:09:00,76.4,72.6,29.97,NE,51,3.0,7.0,88,0.00,,,0.00,Wunderground v.1.15,2013-09-11 06:09:00,
2013-09-11 02:11:00,76.4,72.6,29.97,NE,49,5.0,5.0,88,0.00,,,0.00,Wunderground v.1.15,2013-09-11 06:11:00,
2013-09-11 02:13:00,76.4,72.6,29.97,ENE,72,3.0,5.0,88,0.00,,,0.00,Wunderground v.1.15,2013-09-11 06:13:00,
2013-09-11 02:14:00,76.4,72.6,29.97,ENE,60,6.0,7.0,88,0.00,,,0.00,Wunderground v.1.15,2013-09-11 06:14:00,
2013-09-11 02:15:00,76.4,72.6,29.97,ENE,69,4.0,7.0,88,0.00,,,0.00,Wunderground v.1.15,2013-09-11 06:15:00,
2013-09-11 02:16:00,76.4,72.6,29.97,NE,44,3.0,7.0,88,0.00,,,0.00,Wunderground v.1.15,2013-09-11 06:16:00,
2013-09-11 02:18:00,76.3,72.5,29.97,ENE,68,3.0,7.0,88,0.00,,,0.00,Wunderground v.1.15,2013-09-11 06:18:00,
2013-09-11 02:19:00,76.3,72.5,29.97,NE,45,4.0,7.0,88,0.00,,,0.00,Wunderground v.1.15,2013-09-11 06:19:00,
2013-09-11 02:20:00,76.3,72.8,29.97,ENE,65,1.0,3.0,89,0.00,,,0.00,Wunderground v.1.15,2013-09-11 06:20:00,
2013-09-11 02:21:00,76.3,72.8,29.97,NE,40,4.0,5.0,89,0.00,,,0.00,Wunderground v.1.15,2013-09-11 06:21:00,
2013-09-11 02:23:00,76.3,72.8,29.97,ENE,58,2.0,5.0,89,0.00,,,0.00,Wunderground v.1.15,2013-09-11 06:23:00,
2013-09-11 02:24:00,76.3,72.8,29.97,ENE,72,2.0,5.0,89,0.00,,,0.00,Wunderground v.1.15,2013-09-11 06:24:00,
2013-09-11 02:25:00,76.2,72.7,29.97,NE,46,3.0,5.0,89,0.00,,,0.00,Wunderground v.1.15,2013-09-11 06:25:00,
2013-09-11 02:26:00,76.2,72.7,29.97,ENE,72,3.0,5.0,89,0.00,,,0.00,Wunderground v.1.15,2013-09-11 06:26:00,
2013-09-11 02:27:00,76.2,72.7,29.97,East,88,3.0,5.0,89,0.00,,,0.00,Wunderground v.1.15,2013-09-11 06:27:00,
2013-09-11 02:28:00,76.2,72.7,29.96,NE,51,3.0,5.0,89,0.00,,,0.00,Wunderground v.1.15,2013-09-11 06:28:00,
2013-09-11 02:29:00,76.2,72.7,29.96,NE,41,4.0,5.0,89,0.00,,,0.00,Wunderground v.1.15,2013-09-11 06:29:00,
2013-09-11 02:31:00,76.2,72.7,29.96,ENE,60,2.0,4.0,89,0.00,,,0.00,Wunderground v.1.15,2013-09-11 06:31:00,
2013-09-11 02:32:00,76.2,72.7,29.96,NE,56,3.0,4.0,89,0.00,,,0.00,Wunderground v.1.15,2013-09-11 06:32:00,
2013-09-11 02:33:00,76.2,72.7,29.96,NNE,23,0.0,4.0,89,0.00,,,0.00,Wunderground v.1.15,2013-09-11 06:33:00,
2013-09-11 02:34:00,76.2,72.7,29.96,NNE,30,4.0,6.0,89,0.00,,,0.00,Wunderground v.1.15,2013-09-11 06:34:00,
2013-09-11 02:36:00,76.1,72.6,29.96,NNE,28,4.0,6.0,89,0.00,,,0.00,Wunderground v.1.15,2013-09-11 06:36:00,
2013-09-11 02:37:00,76.2,72.7,29.96,ENE,72,2.0,6.0,89,0.00,,,0.00,Wunderground v.1.15,2013-09-11 06:37:00,
2013-09-11 02:38:00,76.1,72.6,29.96,NE,38,2.0,6.0,89,0.00,,,0.00,Wunderground v.1.15,2013-09-11 06:38:00,
2013-09-11 02:39:00,76.1,72.6,29.96,ENE,72,2.0,6.0,89,0.00,,,0.00,Wunderground v.1.15,2013-09-11 06:39:00,
2013-09-11 02:42:00,76.1,72.6,29.96,NE,45,2.0,8.0,89,0.00,,,0.00,Wunderground v.1.15,2013-09-11 06:42:00,
2013-09-11 02:43:00,76.1,72.6,29.96,East,97,2.0,8.0,89,0.00,,,0.00,Wunderground v.1.15,2013-09-11 06:43:00,
2013-09-11 02:44:00,76.1,72.6,29.96,ENE,63,2.0,8.0,89,0.00,,,0.00,Wunderground v.1.15,2013-09-11 06:44:00,
2013-09-11 02:47:00,76.1,72.6,29.95,ENE,58,2.0,8.0,89,0.00,,,0.00,Wunderground v.1.15,2013-09-11 06:47:00,
2013-09-11 02:48:00,76.0,72.5,29.96,NE,41,1.0,8.0,89,0.00,,,0.00,Wunderground v.1.15,2013-09-11 06:48:00,
2013-09-11 02:49:00,76.0,72.5,29.95,NNE,26,2.0,8.0,89,0.00,,,0.00,Wunderground v.1.15,2013-09-11 06:49:00,
2013-09-11 02:52:00,76.0,72.5,29.96,NE,51,2.0,6.0,89,0.00,,,0.00,Wunderground v.1.15,2013-09-11 06:52:00,
2013-09-11 02:53:00,76.0,72.5,29.96,NE,51,3.0,6.0,89,0.00,,,0.00,Wunderground v.1.15,2013-09-11 06:53:00,
2013-09-11 02:54:00,75.9,72.4,29.95,NE,36,2.0,6.0,89,0.00,,,0.00,Wunderground v.1.15,2013-09-11 06:54:00,
2013-09-11 02:58:00,75.9,72.4,29.95,NE,46,10.0,10.0,89,0.00,,,0.00,Wunderground v.1.15,2013-09-11 06:58:00,
2013-09-11 02:59:00,75.9,72.4,29.95,NE,55,4.0,10.0,89,0.00,,,0.00,Wunderground v.1.15,2013-09-11 06:59:00,
2013-09-11 03:03:00,75.9,72.4,29.95,NE,44,5.0,5.0,89,0.00,,,0.00,Wunderground v.1.15,2013-09-11 07:03:00,
2013-09-11 03:04:00,75.8,72.3,29.95,NE,49,3.0,5.0,89,0.00,,,0.00,Wunderground v.1.15,2013-09-11 07:04:00,
2013-09-11 03:05:00,75.8,72.3,29.95,ENE,65,2.0,5.0,89,0.00,,,0.00,Wunderground v.1.15,2013-09-11 07:05:00,
2013-09-11 03:08:00,75.8,72.3,29.95,NE,49,1.0,5.0,89,0.00,,,0.00,Wunderground v.1.15,2013-09-11 07:08:00,
2013-09-11 03:09:00,75.8,72.3,29.95,NE,41,2.0,5.0,89,0.00,,,0.00,Wunderground v.1.15,2013-09-11 07:09:00,
2013-09-11 03:10:00,75.8,72.3,29.95,NE,49,2.0,3.0,89,0.00,,,0.00,Wunderground v.1.15,2013-09-11 07:10:00,
2013-09-11 03:11:00,75.8,72.3,29.95,NE,41,4.0,4.0,89,0.00,,,0.00,Wunderground v.1.15,2013-09-11 07:11:00,
2013-09-11 03:14:00,75.7,72.2,29.95,NE,49,1.0,6.0,89,0.00,,,0.00,Wunderground v.1.15,2013-09-11 07:14:00,
2013-09-11 03:15:00,75.7,72.2,29.95,NE,41,4.0,6.0,89,0.00,,,0.00,Wunderground v.1.15,2013-09-11 07:15:00,
2013-09-11 03:16:00,75.7,72.2,29.95,NE,55,3.0,6.0,89,0.00,,,0.00,Wunderground v.1.15,2013-09-11 07:16:00,
2013-09-11 03:19:00,75.6,72.5,29.95,NE,51,4.0,6.0,90,0.00,,,0.00,Wunderground v.1.15,2013-09-11 07:19:00,
2013-09-11 03:20:00,75.6,72.5,29.95,NE,40,3.0,3.0,90,0.00,,,0.00,Wunderground v.1.15,2013-09-11 07:20:00,
2013-09-11 03:21:00,75.6,72.5,29.95,ENE,58,2.0,4.0,90,0.00,,,0.00,Wunderground v.1.15,2013-09-11 07:21:00,
2013-09-11 03:24:00,75.5,72.4,29.94,ENE,60,1.0,6.0,90,0.00,,,0.00,Wunderground v.1.15,2013-09-11 07:24:00,
2013-09-11 03:25:00,75.5,72.4,29.94,NE,42,5.0,6.0,90,0.00,,,0.00,Wunderground v.1.15,2013-09-11 07:25:00,
2013-09-11 03:26:00,75.5,72.4,29.94,ENE,72,4.0,6.0,90,0.00,,,0.00,Wunderground v.1.15,2013-09-11 07:26:00,
2013-09-11 03:27:00,75.5,72.4,29.94,NNW,333,2.0,6.0,90,0.00,,,0.00,Wunderground v.1.15,2013-09-11 07:27:00,
2013-09-11 03:29:00,75.5,72.4,29.94,ENE,60,7.0,7.0,90,0.00,,,0.00,Wunderground v.1.15,2013-09-11 07:29:00,
2013-09-11 03:30:00,75.5,72.4,29.94,NE,52,4.0,6.0,90,0.00,,,0.00,Wunderground v.1.15,2013-09-11 07:30:00,
2013-09-11 03:31:00,75.5,72.4,29.94,NE,41,2.0,6.0,90,0.00,,,0.00,Wunderground v.1.15,2013-09-11 07:31:00,
2013-09-11 03:32:00,75.5,72.4,29.94,NNE,30,3.0,6.0,90,0.00,,,0.00,Wunderground v.1.15,2013-09-11 07:32:00,
2013-09-11 03:34:00,75.5,72.4,29.94,NNE,19,2.0,7.0,90,0.00,,,0.00,Wunderground v.1.15,2013-09-11 07:34:00,
2013-09-11 03:35:00,75.5,72.4,29.94,NNW,347,2.0,7.0,90,0.00,,,0.00,Wunderground v.1.15,2013-09-11 07:35:00,
2013-09-11 03:36:00,75.5,72.4,29.94,North,9,5.0,7.0,90,0.00,,,0.00,Wunderground v.1.15,2013-09-11 07:36:00,
2013-09-11 03:37:00,75.5,72.4,29.94,NE,55,3.0,7.0,90,0.00,,,0.00,Wunderground v.1.15,2013-09-11 07:37:00,
2013-09-11 03:38:00,75.5,72.4,29.94,NNE,26,7.0,7.0,90,0.00,,,0.00,Wunderground v.1.15,2013-09-11 07:38:00,
2013-09-11 03:39:00,75.5,72.4,29.94,North,349,3.0,7.0,90,0.00,,,0.00,Wunderground v.1.15,2013-09-11 07:39:00,
2013-09-11 03:40:00,75.5,72.4,29.94,NE,50,2.0,6.0,90,0.00,,,0.00,Wunderground v.1.15,2013-09-11 07:40:00,
2013-09-11 03:42:00,75.5,72.4,29.94,NNW,338,3.0,7.0,90,0.00,,,0.00,Wunderground v.1.15,2013-09-11 07:42:00,
2013-09-11 03:43:00,75.5,72.0,29.94,North,360,4.0,7.0,89,0.00,,,0.00,Wunderground v.1.15,2013-09-11 07:43:00,
2013-09-11 03:44:00,75.6,72.1,29.94,North,5,3.0,7.0,89,0.00,,,0.00,Wunderground v.1.15,2013-09-11 07:44:00,
2013-09-11 03:46:00,75.6,72.1,29.94,NNW,330,4.0,7.0,89,0.00,,,0.00,Wunderground v.1.15,2013-09-11 07:46:00,
2013-09-11 03:48:00,75.6,72.1,29.94,NNE,19,5.0,8.0,89,0.00,,,0.00,Wunderground v.1.15,2013-09-11 07:48:00,
2013-09-11 03:49:00,75.5,72.0,29.94,NE,52,3.0,8.0,89,0.00,,,0.00,Wunderground v.1.15,2013-09-11 07:49:00,
2013-09-11 03:50:00,75.5,72.0,29.94,ENE,58,2.0,4.0,89,0.00,,,0.00,Wunderground v.1.15,2013-09-11 07:50:00,
2013-09-11 03:51:00,75.5,72.0,29.94,NNE,25,4.0,5.0,89,0.00,,,0.00,Wunderground v.1.15,2013-09-11 07:51:00,
2013-09-11 03:53:00,75.5,72.4,29.94,NNE,33,5.0,6.0,90,0.00,,,0.00,Wunderground v.1.15,2013-09-11 07:53:00,
2013-09-11 03:54:00,75.5,72.4,29.94,North,349,4.0,6.0,90,0.00,,,0.00,Wunderground v.1.15,2013-09-11 07:54:00,
2013-09-11 03:55:00,75.5,72.4,29.94,NE,50,1.0,6.0,90,0.00,,,0.00,Wunderground v.1.15,2013-09-11 07:55:00,
2013-09-11 03:56:00,75.5,72.4,29.94,NE,51,3.0,6.0,90,0.00,,,0.00,Wunderground v.1.15,2013-09-11 07:56:00,
2013-09-11 03:59:00,75.5,72.4,29.94,NNE,33,0.0,6.0,90,0.00,,,0.00,Wunderground v.1.15,2013-09-11 07:59:00,
2013-09-11 04:00:00,75.5,72.4,29.94,North,355,2.0,3.0,90,0.00,,,0.00,Wunderground v.1.15,2013-09-11 08:00:00,
2013-09-11 04:01:00,75.5,72.4,29.94,NNE,19,4.0,5.0,90,0.00,,,0.00,Wunderground v.1.15,2013-09-11 08:01:00,
2013-09-11 04:04:00,75.5,72.4,29.95,North,8,6.0,6.0,90,0.00,,,0.00,Wunderground v.1.15,2013-09-11 08:04:00,
2013-09-11 04:05:00,75.5,72.4,29.95,NE,41,3.0,6.0,90,0.00,,,0.00,Wunderground v.1.15,2013-09-11 08:05:00,
2013-09-11 04:06:00,75.5,72.4,29.95,NE,46,5.0,6.0,90,0.00,,,0.00,Wunderground v.1.15,2013-09-11 08:06:00,
2013-09-11 04:10:00,75.5,72.4,29.94,ENE,68,5.0,5.0,90,0.00,,,0.00,Wunderground v.1.15,2013-09-11 08:10:00,
2013-09-11 04:11:00,75.5,72.4,29.94,NNE,31,3.0,5.0,90,0.00,,,0.00,Wunderground v.1.15,2013-09-11 08:11:00,
2013-09-11 04:15:00,75.5,72.4,29.94,NNE,23,5.0,8.0,90,0.00,,,0.00,Wunderground v.1.15,2013-09-11 08:15:00,
2013-09-11 04:16:00,75.5,72.4,29.94,NNE,13,4.0,8.0,90,0.00,,,0.00,Wunderground v.1.15,2013-09-11 08:16:00,
2013-09-11 04:20:00,75.5,72.4,29.94,NNE,25,2.0,4.0,90,0.00,,,0.00,Wunderground v.1.15,2013-09-11 08:20:00,
2013-09-11 04:21:00,75.5,72.4,29.95,NNE,32,5.0,5.0,90,0.00,,,0.00,Wunderground v.1.15,2013-09-11 08:21:00,
2013-09-11 04:23:00,75.5,72.4,29.95,NE,51,2.0,7.0,90,0.00,,,0.00,Wunderground v.1.15,2013-09-11 08:23:00,
2013-09-11 04:26:00,75.5,72.4,29.95,NNE,27,2.0,7.0,90,0.00,,,0.00,Wunderground v.1.15,2013-09-11 08:26:00,
2013-09-11 04:27:00,75.5,72.4,29.95,NE,42,1.0,7.0,90,0.00,,,0.00,Wunderground v.1.15,2013-09-11 08:27:00,
2013-09-11 04:28:00,75.5,72.4,29.95,NE,37,3.0,7.0,90,0.00,,,0.00,Wunderground v.1.15,2013-09-11 08:28:00,
2013-09-11 04:31:00,75.5,72.4,29.95,NE,37,2.0,5.0,90,0.00,,,0.00,Wunderground v.1.15,2013-09-11 08:31:00,
2013-09-11 04:32:00,75.5,72.4,29.95,NE,55,4.0,5.0,90,0.00,,,0.00,Wunderground v.1.15,2013-09-11 08:32:00,
2013-09-11 04:34:00,75.5,72.4,29.95,NE,50,6.0,7.0,90,0.00,,,0.00,Wunderground v.1.15,2013-09-11 08:34:00,
2013-09-11 04:36:00,75.5,72.4,29.95,NE,39,2.0,9.0,90,0.00,,,0.00,Wunderground v.1.15,2013-09-11 08:36:00,
2013-09-11 04:37:00,75.5,72.4,29.95,NE,44,3.0,9.0,90,0.00,,,0.00,Wunderground v.1.15,2013-09-11 08:37:00,
2013-09-11 04:38:00,75.6,72.5,29.95,NE,44,3.0,9.0,90,0.00,,,0.00,Wunderground v.1.15,2013-09-11 08:38:00,
2013-09-11 04:40:00,75.6,72.5,29.95,NE,37,2.0,4.0,90,0.00,,,0.00,Wunderground v.1.15,2013-09-11 08:40:00,
2013-09-11 04:41:00,75.5,72.4,29.94,NNE,26,5.0,6.0,90,0.00,,,0.00,Wunderground v.1.15,2013-09-11 08:41:00,
2013-09-11 04:42:00,75.6,72.5,29.94,NNE,25,3.0,6.0,90,0.00,,,0.00,Wunderground v.1.15,2013-09-11 08:42:00,
2013-09-11 04:44:00,75.6,72.5,29.94,NE,41,4.0,6.0,90,0.00,,,0.00,Wunderground v.1.15,2013-09-11 08:44:00,
2013-09-11 04:45:00,75.6,72.5,29.95,North,352,3.0,6.0,90,0.00,,,0.00,Wunderground v.1.15,2013-09-11 08:45:00,
2013-09-11 04:46:00,75.6,72.5,29.95,NNE,29,2.0,6.0,90,0.00,,,0.00,Wunderground v.1.15,2013-09-11 08:46:00,
2013-09-11 04:47:00,75.6,72.5,29.95,NNE,29,4.0,6.0,90,0.00,,,0.00,Wunderground v.1.15,2013-09-11 08:47:00,
2013-09-11 04:49:00,75.6,72.5,29.95,NE,34,4.0,6.0,90,0.00,,,0.00,Wunderground v.1.15,2013-09-11 08:49:00,
2013-09-11 04:50:00,75.6,72.5,29.95,NE,47,3.0,3.0,90,0.00,,,0.00,Wunderground v.1.15,2013-09-11 08:50:00,
2013-09-11 04:51:00,75.6,72.5,29.95,NE,46,5.0,5.0,90,0.00,,,0.00,Wunderground v.1.15,2013-09-11 08:51:00,
2013-09-11 04:52:00,75.6,72.5,29.95,ENE,75,5.0,6.0,90,0.00,,,0.00,Wunderground v.1.15,2013-09-11 08:52:00,
2013-09-11 04:54:00,75.6,72.5,29.95,ENE,60,2.0,7.0,90,0.00,,,0.00,Wunderground v.1.15,2013-09-11 08:54:00,
2013-09-11 04:55:00,75.6,72.5,29.94,NNE,25,2.0,7.0,90,0.00,,,0.00,Wunderground v.1.15,2013-09-11 08:55:00,
2013-09-11 04:56:00,75.6,72.5,29.95,ENE,58,5.0,8.0,90,0.00,,,0.00,Wunderground v.1.15,2013-09-11 08:56:00,
2013-09-11 04:57:00,75.6,72.5,29.95,North,357,5.0,8.0,90,0.00,,,0.00,Wunderground v.1.15,2013-09-11 08:57:00,
2013-09-11 04:59:00,75.6,72.5,29.94,NE,51,0.0,8.0,90,0.00,,,0.00,Wunderground v.1.15,2013-09-11 08:59:00,
2013-09-11 05:00:00,75.6,72.5,29.94,NE,37,3.0,7.0,90,0.00,,,0.00,Wunderground v.1.15,2013-09-11 09:00:00,
2013-09-11 05:01:00,75.6,72.5,29.94,NNE,33,4.0,7.0,90,0.00,,,0.00,Wunderground v.1.15,2013-09-11 09:01:00,
2013-09-11 05:02:00,75.5,72.4,29.95,NE,55,1.0,7.0,90,0.00,,,0.00,Wunderground v.1.15,2013-09-11 09:02:00,
2013-09-11 05:05:00,75.5,72.4,29.94,NNE,29,5.0,7.0,90,0.00,,,0.00,Wunderground v.1.15,2013-09-11 09:05:00,
2013-09-11 05:06:00,75.5,72.4,29.94,ENE,62,4.0,7.0,90,0.00,,,0.00,Wunderground v.1.15,2013-09-11 09:06:00,
2013-09-11 05:07:00,75.5,72.4,29.94,North,351,4.0,7.0,90,0.00,,,0.00,Wunderground v.1.15,2013-09-11 09:07:00,
2013-09-11 05:08:00,75.5,72.4,29.94,NE,38,5.0,9.0,90,0.00,,,0.00,Wunderground v.1.15,2013-09-11 09:08:00,
2013-09-11 05:10:00,75.5,72.4,29.94,NNE,30,5.0,7.0,90,0.00,,,0.00,Wunderground v.1.15,2013-09-11 09:10:00,
2013-09-11 05:11:00,75.5,72.4,29.94,NNE,30,4.0,7.0,90,0.00,,,0.00,Wunderground v.1.15,2013-09-11 09:11:00,
2013-09-11 05:12:00,75.5,72.4,29.94,NNE,20,2.0,7.0,90,0.00,,,0.00,Wunderground v.1.15,2013-09-11 09:12:00,
2013-09-11 05:14:00,75.5,72.4,29.94,ENE,64,2.0,7.0,90,0.00,,,0.00,Wunderground v.1.15,2013-09-11 09:14:00,
2013-09-11 05:15:00,75.5,72.4,29.94,NE,47,3.0,11.0,90,0.00,,,0.00,Wunderground v.1.15,2013-09-11 09:15:00,
2013-09-11 05:16:00,75.5,72.4,29.94,NE,49,4.0,11.0,90,0.00,,,0.00,Wunderground v.1.15,2013-09-11 09:16:00,
2013-09-11 05:18:00,75.5,72.4,29.94,NE,40,4.0,11.0,90,0.00,,,0.00,Wunderground v.1.15,2013-09-11 09:18:00,
2013-09-11 05:19:00,75.5,72.4,29.94,NE,39,0.0,11.0,90,0.00,,,0.00,Wunderground v.1.15,2013-09-11 09:19:00,
2013-09-11 05:21:00,75.5,72.4,29.94,NE,38,5.0,5.0,90,0.00,,,0.00,Wunderground v.1.15,2013-09-11 09:21:00,
2013-09-11 05:22:00,75.4,72.3,29.94,NE,36,2.0,5.0,90,0.00,,,0.00,Wunderground v.1.15,2013-09-11 09:22:00,
2013-09-11 05:23:00,75.4,72.3,29.94,NE,47,2.0,5.0,90,0.00,,,0.00,Wunderground v.1.15,2013-09-11 09:23:00,
2013-09-11 05:24:00,75.4,72.3,29.94,NE,41,3.0,7.0,90,0.00,,,0.00,Wunderground v.1.15,2013-09-11 09:24:00,
2013-09-11 05:26:00,75.4,72.3,29.94,NNE,32,1.0,7.0,90,0.00,,,0.00,Wunderground v.1.15,2013-09-11 09:26:00,
2013-09-11 05:27:00,75.4,72.3,29.94,NE,43,2.0,7.0,90,0.00,,,0.00,Wunderground v.1.15,2013-09-11 09:27:00,
2013-09-11 05:28:00,75.4,72.3,29.94,NE,39,6.0,7.0,90,0.00,,,0.00,Wunderground v.1.15,2013-09-11 09:28:00,
2013-09-11 05:30:00,75.3,72.2,29.95,NE,47,3.0,3.0,90,0.00,,,0.00,Wunderground v.1.15,2013-09-11 09:30:00,
2013-09-11 05:31:00,75.3,72.2,29.95,NNE,29,1.0,4.0,90,0.00,,,0.00,Wunderground v.1.15,2013-09-11 09:31:00,
2013-09-11 05:32:00,75.3,72.2,29.95,NE,38,6.0,6.0,90,0.00,,,0.00,Wunderground v.1.15,2013-09-11 09:32:00,
2013-09-11 05:33:00,75.3,72.5,29.95,NE,41,2.0,7.0,91,0.00,,,0.00,Wunderground v.1.15,2013-09-11 09:33:00,
2013-09-11 05:35:00,75.3,72.5,29.95,NE,46,4.0,7.0,91,0.00,,,0.00,Wunderground v.1.15,2013-09-11 09:35:00,
2013-09-11 05:36:00,75.3,72.5,29.95,NE,46,2.0,7.0,91,0.00,,,0.00,Wunderground v.1.15,2013-09-11 09:36:00,
2013-09-11 05:38:00,75.3,72.5,29.95,ENE,77,6.0,10.0,91,0.00,,,0.00,Wunderground v.1.15,2013-09-11 09:38:00,
2013-09-11 05:40:00,75.2,72.4,29.95,NNW,340,3.0,4.0,91,0.00,,,0.00,Wunderground v.1.15,2013-09-11 09:40:00,
2013-09-11 05:41:00,75.2,72.4,29.95,NNE,13,7.0,10.0,91,0.00,,,0.00,Wunderground v.1.15,2013-09-11 09:41:00,
2013-09-11 05:42:00,75.2,72.4,29.95,NNE,30,4.0,10.0,91,0.00,,,0.00,Wunderground v.1.15,2013-09-11 09:42:00,
2013-09-11 05:43:00,75.2,72.4,29.95,ENE,62,4.0,10.0,91,0.00,,,0.00,Wunderground v.1.15,2013-09-11 09:43:00,
2013-09-11 05:45:00,75.2,72.4,29.95,NE,39,4.0,10.0,91,0.00,,,0.00,Wunderground v.1.15,2013-09-11 09:45:00,
2013-09-11 05:46:00,75.2,72.4,29.95,NE,49,5.0,10.0,91,0.00,,,0.00,Wunderground v.1.15,2013-09-11 09:46:00,
2013-09-11 05:47:00,75.2,72.4,29.95,NNE,18,1.0,10.0,91,0.00,,,0.00,Wunderground v.1.15,2013-09-11 09:47:00,
2013-09-11 05:48:00,75.2,72.4,29.95,NNE,19,1.0,10.0,91,0.00,,,0.00,Wunderground v.1.15,2013-09-11 09:48:00,
2013-09-11 05:49:00,75.2,72.4,29.95,NNE,23,4.0,10.0,91,0.00,,,0.00,Wunderground v.1.15,2013-09-11 09:49:00,
2013-09-11 05:52:00,75.2,72.4,29.95,NE,42,5.0,7.0,91,0.00,,,0.00,Wunderground v.1.15,2013-09-11 09:52:00,
2013-09-11 05:53:00,75.2,72.4,29.95,NE,42,4.0,9.0,91,0.00,,,0.00,Wunderground v.1.15,2013-09-11 09:53:00,
2013-09-11 05:54:00,75.1,72.3,29.95,NE,41,3.0,9.0,91,0.00,,,0.00,Wunderground v.1.15,2013-09-11 09:54:00,
2013-09-11 05:57:00,75.1,72.3,29.95,NNE,27,3.0,9.0,91,0.00,,,0.00,Wunderground v.1.15,2013-09-11 09:57:00,
2013-09-11 05:58:00,75.1,72.3,29.95,NE,44,5.0,9.0,91,0.00,,,0.00,Wunderground v.1.15,2013-09-11 09:58:00,
2013-09-11 05:59:00,75.1,72.3,29.95,ENE,60,3.0,9.0,91,0.00,,,0.00,Wunderground v.1.15,2013-09-11 09:59:00,
2013-09-11 06:02:00,75.1,72.3,29.96,NE,40,6.0,8.0,91,0.00,,,0.00,Wunderground v.1.15,2013-09-11 10:02:00,
2013-09-11 06:03:00,75.1,72.3,29.96,NNE,25,3.0,8.0,91,0.00,,,0.00,Wunderground v.1.15,2013-09-11 10:03:00,
2013-09-11 06:05:00,75.2,72.4,29.96,NE,36,0.0,8.0,91,0.00,,,0.00,Wunderground v.1.15,2013-09-11 10:05:00,
2013-09-11 06:06:00,75.2,72.4,29.96,NE,41,4.0,8.0,91,0.00,,,0.00,Wunderground v.1.15,2013-09-11 10:06:00,
2013-09-11 06:07:00,75.2,72.4,29.96,North,351,3.0,8.0,91,0.00,,,0.00,Wunderground v.1.15,2013-09-11 10:07:00,
2013-09-11 06:08:00,75.1,72.3,29.96,NE,34,5.0,8.0,91,0.00,,,0.00,Wunderground v.1.15,2013-09-11 10:08:00,
2013-09-11 06:10:00,75.1,72.3,29.96,ENE,72,5.0,5.0,91,0.00,,,0.00,Wunderground v.1.15,2013-09-11 10:10:00,
2013-09-11 06:11:00,75.1,72.3,29.96,NE,54,5.0,6.0,91,0.00,,,0.00,Wunderground v.1.15,2013-09-11 10:11:00,
2013-09-11 06:12:00,75.1,72.3,29.96,NE,49,3.0,6.0,91,0.00,,,0.00,Wunderground v.1.15,2013-09-11 10:12:00,
2013-09-11 06:13:00,75.1,72.3,29.96,ENE,58,3.0,6.0,91,0.00,,,0.00,Wunderground v.1.15,2013-09-11 10:13:00,
2013-09-11 06:16:00,75.1,72.3,29.96,NNE,33,3.0,6.0,91,0.00,,,0.00,Wunderground v.1.15,2013-09-11 10:16:00,
2013-09-11 06:17:00,75.1,72.3,29.96,NNE,20,2.0,6.0,91,0.00,,,0.00,Wunderground v.1.15,2013-09-11 10:17:00,
2013-09-11 06:18:00,75.1,72.3,29.96,NE,51,1.0,6.0,91,0.00,,,0.00,Wunderground v.1.15,2013-09-11 10:18:00,
2013-09-11 06:22:00,75.1,72.3,29.96,NE,49,4.0,7.0,91,0.00,,,0.00,Wunderground v.1.15,2013-09-11 10:22:00,
2013-09-11 06:23:00,75.1,72.3,29.96,NE,51,3.0,7.0,91,0.00,,,0.00,Wunderground v.1.15,2013-09-11 10:23:00,
2013-09-11 06:27:00,75.1,72.3,29.97,NE,45,3.0,9.0,91,0.00,,,0.00,Wunderground v.1.15,2013-09-11 10:27:00,
2013-09-11 06:28:00,75.1,72.3,29.97,NNE,33,2.0,9.0,91,0.00,,,0.00,Wunderground v.1.15,2013-09-11 10:28:00,
2013-09-11 06:29:00,75.1,72.3,29.97,NE,39,2.0,9.0,91,0.00,,,0.00,Wunderground v.1.15,2013-09-11 10:29:00,
2013-09-11 06:32:00,75.0,72.2,29.96,NNE,20,6.0,7.0,91,0.00,,,0.00,Wunderground v.1.15,2013-09-11 10:32:00,
2013-09-11 06:33:00,75.0,72.2,29.96,NE,45,4.0,8.0,91,0.00,,,0.00,Wunderground v.1.15,2013-09-11 10:33:00,
2013-09-11 06:34:00,75.1,72.3,29.96,NE,44,2.0,8.0,91,0.00,,,0.00,Wunderground v.1.15,2013-09-11 10:34:00,
2013-09-11 06:36:00,75.1,72.3,29.97,NE,36,6.0,8.0,91,0.00,,,0.00,Wunderground v.1.15,2013-09-11 10:36:00,
2013-09-11 06:39:00,75.0,72.2,29.97,NNE,29,6.0,8.0,91,0.00,,,0.00,Wunderground v.1.15,2013-09-11 10:39:00,
2013-09-11 06:40:00,75.0,72.2,29.97,NNE,25,1.0,4.0,91,0.00,,,0.00,Wunderground v.1.15,2013-09-11 10:40:00,
2013-09-11 06:41:00,75.0,72.2,29.97,NNE,25,1.0,4.0,91,0.00,,,0.00,Wunderground v.1.15,2013-09-11 10:41:00,
2013-09-11 06:44:00,75.0,72.2,29.97,NNW,334,6.0,9.0,91,0.00,,,0.00,Wunderground v.1.15,2013-09-11 10:44:00,
2013-09-11 06:45:00,75.0,72.2,29.97,NE,46,5.0,9.0,91,0.00,,,0.00,Wunderground v.1.15,2013-09-11 10:45:00,
2013-09-11 06:46:00,75.0,72.2,29.97,NE,53,4.0,9.0,91,0.00,,,0.00,Wunderground v.1.15,2013-09-11 10:46:00,
2013-09-11 06:49:00,75.0,72.2,29.97,NE,36,1.0,9.0,91,0.00,,,0.00,Wunderground v.1.15,2013-09-11 10:49:00,
2013-09-11 06:50:00,75.0,72.2,29.97,NNE,32,2.0,6.0,91,0.00,,,0.00,Wunderground v.1.15,2013-09-11 10:50:00,
2013-09-11 06:51:00,75.0,72.2,29.97,NNE,33,2.0,6.0,91,0.00,,,0.00,Wunderground v.1.15,2013-09-11 10:51:00,
2013-09-11 06:52:00,75.1,72.3,29.97,NE,46,4.0,6.0,91,0.00,,,0.00,Wunderground v.1.15,2013-09-11 10:52:00,
2013-09-11 06:54:00,75.0,72.2,29.97,NE,55,2.0,6.0,91,0.00,,,0.00,Wunderground v.1.15,2013-09-11 10:54:00,
2013-09-11 06:56:00,75.0,72.2,29.97,NE,40,2.0,6.0,91,0.00,,,0.00,Wunderground v.1.15,2013-09-11 10:56:00,
2013-09-11 06:59:00,75.0,72.2,29.97,NNE,30,3.0,6.0,91,0.00,,,0.00,Wunderground v.1.15,2013-09-11 10:59:00,
2013-09-11 07:00:00,75.0,72.2,29.97,NE,55,4.0,5.0,91,0.00,,,0.00,Wunderground v.1.15,2013-09-11 11:00:00,
2013-09-11 07:01:00,75.0,72.2,29.97,ENE,60,3.0,7.0,91,0.00,,,0.00,Wunderground v.1.15,2013-09-11 11:01:00,
2013-09-11 07:04:00,75.0,72.2,29.97,ENE,60,3.0,8.0,91,0.00,,,0.00,Wunderground v.1.15,2013-09-11 11:04:00,
2013-09-11 07:05:00,75.0,72.2,29.97,NE,55,1.0,8.0,91,0.00,,,0.00,Wunderground v.1.15,2013-09-11 11:05:00,
2013-09-11 07:07:00,75.0,72.2,29.97,NNE,29,5.0,8.0,91,0.00,,,0.00,Wunderground v.1.15,2013-09-11 11:07:00,
2013-09-11 07:08:00,75.0,72.2,29.97,NE,56,3.0,8.0,91,0.00,,,0.00,Wunderground v.1.15,2013-09-11 11:08:00,
2013-09-11 07:09:00,75.1,72.3,29.97,ENE,71,3.0,8.0,91,0.00,,,0.00,Wunderground v.1.15,2013-09-11 11:09:00,
2013-09-11 07:10:00,75.1,72.3,29.97,NNE,16,4.0,5.0,91,0.00,,,0.00,Wunderground v.1.15,2013-09-11 11:10:00,
2013-09-11 07:12:00,75.1,72.0,29.97,NE,38,6.0,6.0,90,0.00,,,0.00,Wunderground v.1.15,2013-09-11 11:12:00,
2013-09-11 07:14:00,75.1,72.0,29.98,NE,37,3.0,9.0,90,0.00,,,0.00,Wunderground v.1.15,2013-09-11 11:14:00,
2013-09-11 07:15:00,75.1,72.0,29.98,NE,36,5.0,9.0,90,0.00,,,0.00,Wunderground v.1.15,2013-09-11 11:15:00,
2013-09-11 07:17:00,75.2,72.1,29.98,NE,56,3.0,9.0,90,0.00,,,0.00,Wunderground v.1.15,2013-09-11 11:17:00,
2013-09-11 07:20:00,75.2,72.1,29.98,NNE,33,3.0,4.0,90,0.00,,,0.00,Wunderground v.1.15,2013-09-11 11:20:00,
2013-09-11 07:21:00,75.2,72.1,29.98,NNW,347,5.0,5.0,90,0.00,,,0.00,Wunderground v.1.15,2013-09-11 11:21:00,
2013-09-11 07:22:00,75.2,72.1,29.98,NW,313,3.0,7.0,90,0.00,,,0.00,Wunderground v.1.15,2013-09-11 11:22:00,
2013-09-11 07:25:00,75.3,72.2,29.97,NE,42,4.0,7.0,90,0.00,,,0.00,Wunderground v.1.15,2013-09-11 11:25:00,
2013-09-11 07:26:00,75.2,72.1,29.97,NE,36,2.0,7.0,90,0.00,,,0.00,Wunderground v.1.15,2013-09-11 11:26:00,
2013-09-11 07:29:00,75.3,72.2,29.98,NNW,332,2.0,7.0,90,0.00,,,0.00,Wunderground v.1.15,2013-09-11 11:29:00,
2013-09-11 07:30:00,75.3,72.2,29.97,NE,44,4.0,6.0,90,0.00,,,0.00,Wunderground v.1.15,2013-09-11 11:30:00,
2013-09-11 07:31:00,75.3,72.2,29.98,NE,41,2.0,6.0,90,0.00,,,0.00,Wunderground v.1.15,2013-09-11 11:31:00,
2013-09-11 07:32:00,75.4,72.3,29.98,ENE,71,2.0,6.0,90,0.00,,,0.00,Wunderground v.1.15,2013-09-11 11:32:00,
2013-09-11 07:35:00,75.5,72.4,29.98,NE,36,5.0,7.0,90,0.00,,,0.00,Wunderground v.1.15,2013-09-11 11:35:00,
2013-09-11 07:36:00,75.5,72.4,29.98,NE,38,5.0,7.0,90,0.00,,,0.00,Wunderground v.1.15,2013-09-11 11:36:00,
2013-09-11 07:38:00,75.6,72.5,29.98,NNW,347,1.0,7.0,90,0.00,,,0.00,Wunderground v.1.15,2013-09-11 11:38:00,
2013-09-11 07:40:00,75.7,72.6,29.98,NE,34,3.0,7.0,90,0.00,,,0.00,Wunderground v.1.15,2013-09-11 11:40:00,
2013-09-11 07:41:00,75.8,72.7,29.98,ENE,60,1.0,5.0,90,0.00,,,0.00,Wunderground v.1.15,2013-09-11 11:41:00,
2013-09-11 07:44:00,75.9,72.8,29.98,NNE,23,3.0,5.0,90,0.00,,,0.00,Wunderground v.1.15,2013-09-11 11:44:00,
2013-09-11 07:45:00,76.0,72.5,29.98,North,4,3.0,5.0,89,0.00,,,0.00,Wunderground v.1.15,2013-09-11 11:45:00,
2013-09-11 07:46:00,76.1,72.6,29.98,North,11,4.0,11.0,89,0.00,,,0.00,Wunderground v.1.15,2013-09-11 11:46:00,
2013-09-11 07:47:00,76.1,72.6,29.98,NE,41,4.0,11.0,89,0.00,,,0.00,Wunderground v.1.15,2013-09-11 11:47:00,
2013-09-11 07:49:00,76.1,72.6,29.98,NE,40,3.0,11.0,89,0.00,,,0.00,Wunderground v.1.15,2013-09-11 11:49:00,
2013-09-11 07:50:00,76.2,72.7,29.98,NE,45,5.0,7.0,89,0.00,,,0.00,Wunderground v.1.15,2013-09-11 11:50:00,
2013-09-11 07:51:00,76.2,72.7,29.98,NE,49,6.0,7.0,89,0.00,,,0.00,Wunderground v.1.15,2013-09-11 11:51:00,
2013-09-11 07:54:00,76.3,72.8,29.98,ENE,71,2.0,9.0,89,0.00,,,0.00,Wunderground v.1.15,2013-09-11 11:54:00,
2013-09-11 07:55:00,76.4,72.9,29.98,NE,49,3.0,9.0,89,0.00,,,0.00,Wunderground v.1.15,2013-09-11 11:55:00,
2013-09-11 07:56:00,76.5,73.0,29.98,North,355,2.0,9.0,89,0.00,,,0.00,Wunderground v.1.15,2013-09-11 11:56:00,
2013-09-11 07:57:00,76.5,73.0,29.98,NE,42,5.0,9.0,89,0.00,,,0.00,Wunderground v.1.15,2013-09-11 11:57:00,
2013-09-11 07:59:00,76.7,73.2,29.98,NNE,33,7.0,10.0,89,0.00,,,0.00,Wunderground v.1.15,2013-09-11 11:59:00,
2013-09-11 08:01:00,76.7,73.2,29.98,NE,51,4.0,5.0,89,0.00,,,0.00,Wunderground v.1.15,2013-09-11 12:01:00,
2013-09-11 08:02:00,76.8,73.3,29.98,NNE,15,6.0,6.0,89,0.00,,,0.00,Wunderground v.1.15,2013-09-11 12:02:00,
2013-09-11 08:04:00,76.9,73.1,29.98,WNW,290,1.0,9.0,88,0.00,,,0.00,Wunderground v.1.15,2013-09-11 12:04:00,
2013-09-11 08:05:00,76.9,73.1,29.98,NNE,25,3.0,9.0,88,0.00,,,0.00,Wunderground v.1.15,2013-09-11 12:05:00,
2013-09-11 08:06:00,77.0,73.2,29.98,NE,49,4.0,9.0,88,0.00,,,0.00,Wunderground v.1.15,2013-09-11 12:06:00,
2013-09-11 08:07:00,77.0,73.2,29.98,ENE,58,4.0,9.0,88,0.00,,,0.00,Wunderground v.1.15,2013-09-11 12:07:00,
2013-09-11 08:10:00,77.2,73.4,29.98,NE,49,3.0,6.0,88,0.00,,,0.00,Wunderground v.1.15,2013-09-11 12:10:00,
2013-09-11 08:11:00,77.2,73.4,29.98,NNE,23,6.0,6.0,88,0.00,,,0.00,Wunderground v.1.15,2013-09-11 12:11:00,
2013-09-11 08:12:00,77.3,73.5,29.98,NNE,25,7.0,8.0,88,0.00,,,0.00,Wunderground v.1.15,2013-09-11 12:12:00,
2013-09-11 08:15:00,77.4,73.6,29.99,ENE,60,3.0,9.0,88,0.00,,,0.00,Wunderground v.1.15,2013-09-11 12:15:00,
2013-09-11 08:16:00,77.5,73.7,29.99,NE,46,9.0,9.0,88,0.00,,,0.00,Wunderground v.1.15,2013-09-11 12:16:00,
2013-09-11 08:17:00,77.5,73.7,29.99,NE,39,3.0,10.0,88,0.00,,,0.00,Wunderground v.1.15,2013-09-11 12:17:00,
2013-09-11 08:18:00,77.5,73.7,29.99,NNE,13,3.0,10.0,88,0.00,,,0.00,Wunderground v.1.15,2013-09-11 12:18:00,
2013-09-11 08:21:00,77.8,74.0,29.99,NE,55,5.0,6.0,88,0.00,,,0.00,Wunderground v.1.15,2013-09-11 12:21:00,
2013-09-11 08:22:00,77.9,74.1,29.99,ENE,60,6.0,10.0,88,0.00,,,0.00,Wunderground v.1.15,2013-09-11 12:22:00,
2013-09-11 08:23:00,77.9,74.1,29.99,ENE,75,5.0,10.0,88,0.00,,,0.00,Wunderground v.1.15,2013-09-11 12:23:00,
2013-09-11 08:26:00,78.0,74.2,29.99,ENE,60,2.0,11.0,88,0.00,,,0.00,Wunderground v.1.15,2013-09-11 12:26:00,
2013-09-11 08:27:00,78.2,74.4,29.99,NE,51,6.0,11.0,88,0.00,,,0.00,Wunderground v.1.15,2013-09-11 12:27:00,
2013-09-11 08:28:00,78.2,74.0,29.99,North,11,5.0,11.0,87,0.00,,,0.00,Wunderground v.1.15,2013-09-11 12:28:00,
2013-09-11 08:31:00,78.4,74.2,29.99,ENE,71,6.0,10.0,87,0.00,,,0.00,Wunderground v.1.15,2013-09-11 12:31:00,
2013-09-11 08:32:00,78.5,74.3,29.99,ENE,73,8.0,10.0,87,0.00,,,0.00,Wunderground v.1.15,2013-09-11 12:32:00,
2013-09-11 08:34:00,78.5,74.3,29.99,NE,50,4.0,13.0,87,0.00,,,0.00,Wunderground v.1.15,2013-09-11 12:34:00,
2013-09-11 08:37:00,78.7,74.5,29.99,East,87,4.0,13.0,87,0.00,,,0.00,Wunderground v.1.15,2013-09-11 12:37:00,
2013-09-11 08:38:00,78.7,74.5,29.99,East,84,4.0,13.0,87,0.00,,,0.00,Wunderground v.1.15,2013-09-11 12:38:00,
2013-09-11 08:39:00,78.8,74.6,29.99,NNE,23,4.0,13.0,87,0.00,,,0.00,Wunderground v.1.15,2013-09-11 12:39:00,
2013-09-11 08:42:00,79.0,74.5,29.99,ENE,60,5.0,7.0,86,0.00,,,0.00,Wunderground v.1.15,2013-09-11 12:42:00,
2013-09-11 08:43:00,79.0,74.5,29.99,ENE,60,9.0,9.0,86,0.00,,,0.00,Wunderground v.1.15,2013-09-11 12:43:00,
2013-09-11 08:44:00,79.1,74.5,29.99,ENE,62,6.0,9.0,86,0.00,,,0.00,Wunderground v.1.15,2013-09-11 12:44:00,
2013-09-11 08:47:00,79.4,74.8,29.99,NE,41,3.0,11.0,86,0.00,,,0.00,Wunderground v.1.15,2013-09-11 12:47:00,
2013-09-11 08:48:00,79.5,74.6,29.99,ENE,71,5.0,11.0,85,0.00,,,0.00,Wunderground v.1.15,2013-09-11 12:48:00,
2013-09-11 08:50:00,79.5,74.6,30.00,ENE,60,8.0,8.0,85,0.00,,,0.00,Wunderground v.1.15,2013-09-11 12:50:00,
2013-09-11 08:52:00,79.6,74.7,30.00,ENE,72,7.0,11.0,85,0.00,,,0.00,Wunderground v.1.15,2013-09-11 12:52:00,
2013-09-11 08:53:00,79.7,74.8,30.00,ENE,73,6.0,13.0,85,0.00,,,0.00,Wunderground v.1.15,2013-09-11 12:53:00,
2013-09-11 08:54:00,79.7,74.8,30.00,ENE,72,7.0,13.0,85,0.00,,,0.00,Wunderground v.1.15,2013-09-11 12:54:00,
2013-09-11 08:55:00,79.8,74.9,30.00,NE,42,8.0,13.0,85,0.00,,,0.00,Wunderground v.1.15,2013-09-11 12:55:00,
2013-09-11 08:57:00,79.9,75.0,30.00,ENE,71,9.0,13.0,85,0.00,,,0.00,Wunderground v.1.15,2013-09-11 12:57:00,
2013-09-11 08:58:00,79.9,75.0,30.00,ENE,60,6.0,13.0,85,0.00,,,0.00,Wunderground v.1.15,2013-09-11 12:58:00,
2013-09-11 08:59:00,79.9,75.0,30.00,NE,55,5.0,14.0,85,0.00,,,0.00,Wunderground v.1.15,2013-09-11 12:59:00,
2013-09-11 09:00:00,80.0,75.1,30.00,ENE,60,6.0,8.0,85,0.00,,,0.00,Wunderground v.1.15,2013-09-11 13:00:00,
2013-09-11 09:02:00,80.1,74.8,30.00,NE,55,7.0,12.0,84,0.00,,,0.00,Wunderground v.1.15,2013-09-11 13:02:00,
2013-09-11 09:04:00,80.1,74.8,30.00,NNE,20,10.0,12.0,84,0.00,,,0.00,Wunderground v.1.15,2013-09-11 13:04:00,
2013-09-11 09:05:00,80.2,74.9,30.00,North,9,3.0,13.0,84,0.00,,,0.00,Wunderground v.1.15,2013-09-11 13:05:00,
2013-09-11 09:06:00,80.2,74.9,30.00,NE,34,5.0,13.0,84,0.00,,,0.00,Wunderground v.1.15,2013-09-11 13:06:00,
2013-09-11 09:07:00,80.3,75.0,30.00,NE,49,5.0,13.0,84,0.00,,,0.00,Wunderground v.1.15,2013-09-11 13:07:00,
2013-09-11 09:09:00,80.3,75.0,30.00,ENE,65,5.0,13.0,84,0.00,,,0.00,Wunderground v.1.15,2013-09-11 13:09:00,
2013-09-11 09:10:00,80.4,75.1,30.00,NE,51,10.0,12.0,84,0.00,,,0.00,Wunderground v.1.15,2013-09-11 13:10:00,
2013-09-11 09:11:00,80.5,75.2,30.00,ENE,71,6.0,12.0,84,0.00,,,0.00,Wunderground v.1.15,2013-09-11 13:11:00,
2013-09-11 09:12:00,80.5,74.9,30.00,East,81,7.0,12.0,83,0.00,,,0.00,Wunderground v.1.15,2013-09-11 13:12:00,
2013-09-11 09:14:00,80.5,75.2,30.00,NNE,30,12.0,12.0,84,0.00,,,0.00,Wunderground v.1.15,2013-09-11 13:14:00,
2013-09-11 09:15:00,80.6,75.0,30.00,NNE,30,3.0,13.0,83,0.00,,,0.00,Wunderground v.1.15,2013-09-11 13:15:00,
2013-09-11 09:16:00,80.7,75.1,30.00,NE,54,12.0,17.0,83,0.00,,,0.00,Wunderground v.1.15,2013-09-11 13:16:00,
2013-09-11 09:17:00,80.7,75.1,30.00,ENE,70,6.0,17.0,83,0.00,,,0.00,Wunderground v.1.15,2013-09-11 13:17:00,
2013-09-11 09:19:00,80.8,75.2,30.00,NE,51,4.0,17.0,83,0.00,,,0.00,Wunderground v.1.15,2013-09-11 13:19:00,
2013-09-11 09:20:00,81.0,75.3,30.00,East,86,3.0,7.0,83,0.00,,,0.00,Wunderground v.1.15,2013-09-11 13:20:00,
2013-09-11 09:21:00,81.1,75.4,30.00,East,82,10.0,10.0,83,0.00,,,0.00,Wunderground v.1.15,2013-09-11 13:21:00,
2013-09-11 09:22:00,81.1,75.1,30.00,NE,49,6.0,13.0,82,0.00,,,0.00,Wunderground v.1.15,2013-09-11 13:22:00,
2013-09-11 09:24:00,81.4,75.4,30.00,NE,49,6.0,13.0,82,0.00,,,0.00,Wunderground v.1.15,2013-09-11 13:24:00,
2013-09-11 09:26:00,81.5,75.5,30.00,ENE,69,8.0,13.0,82,0.00,,,0.00,Wunderground v.1.15,2013-09-11 13:26:00,
2013-09-11 09:27:00,81.5,75.5,30.00,ENE,73,7.0,13.0,82,0.00,,,0.00,Wunderground v.1.15,2013-09-11 13:27:00,
2013-09-11 09:28:00,81.4,75.0,30.00,ENE,58,8.0,13.0,81,0.00,,,0.00,Wunderground v.1.15,2013-09-11 13:28:00,
2013-09-11 09:30:00,81.6,75.6,30.00,NE,43,2.0,13.0,82,0.00,,,0.00,Wunderground v.1.15,2013-09-11 13:30:00,
2013-09-11 09:31:00,81.7,75.7,30.00,NE,42,5.0,6.0,82,0.00,,,0.00,Wunderground v.1.15,2013-09-11 13:31:00,
2013-09-11 09:32:00,81.8,75.8,30.00,East,91,5.0,6.0,82,0.00,,,0.00,Wunderground v.1.15,2013-09-11 13:32:00,
2013-09-11 09:33:00,81.9,75.9,30.00,East,84,6.0,12.0,82,0.00,,,0.00,Wunderground v.1.15,2013-09-11 13:33:00,
2013-09-11 09:35:00,82.1,75.7,30.00,East,82,8.0,12.0,81,0.00,,,0.00,Wunderground v.1.15,2013-09-11 13:35:00,
2013-09-11 09:37:00,82.2,75.8,30.00,NE,37,8.0,14.0,81,0.00,,,0.00,Wunderground v.1.15,2013-09-11 13:37:00,
2013-09-11 09:38:00,82.2,75.8,30.00,East,86,2.0,14.0,81,0.00,,,0.00,Wunderground v.1.15,2013-09-11 13:38:00,
2013-09-11 09:40:00,82.3,75.9,30.00,NE,47,5.0,5.0,81,0.00,,,0.00,Wunderground v.1.15,2013-09-11 13:40:00,
2013-09-11 09:42:00,82.3,75.9,30.00,East,79,13.0,14.0,81,0.00,,,0.00,Wunderground v.1.15,2013-09-11 13:42:00,
2013-09-11 09:43:00,82.2,75.8,30.00,ENE,60,11.0,15.0,81,0.00,,,0.00,Wunderground v.1.15,2013-09-11 13:43:00,
2013-09-11 09:45:00,82.2,76.2,30.00,ENE,63,6.0,15.0,82,0.00,,,0.00,Wunderground v.1.15,2013-09-11 13:45:00,
2013-09-11 09:48:00,82.3,76.3,30.00,ENE,65,8.0,17.0,82,0.00,,,0.00,Wunderground v.1.15,2013-09-11 13:48:00,
2013-09-11 09:50:00,82.4,76.3,30.00,NE,37,9.0,11.0,82,0.00,,,0.00,Wunderground v.1.15,2013-09-11 13:50:00,
2013-09-11 09:53:00,82.6,76.2,30.00,NE,49,5.0,14.0,81,0.00,,,0.00,Wunderground v.1.15,2013-09-11 13:53:00,
2013-09-11 09:54:00,82.6,76.2,30.00,NE,49,5.0,14.0,81,0.00,,,0.00,Wunderground v.1.15,2013-09-11 13:54:00,
2013-09-11 09:55:00,82.7,76.6,30.00,NE,51,9.0,14.0,82,0.00,,,0.00,Wunderground v.1.15,2013-09-11 13:55:00,
2013-09-11 09:56:00,82.7,76.6,30.00,ENE,65,7.0,14.0,82,0.00,,,0.00,Wunderground v.1.15,2013-09-11 13:56:00,
2013-09-11 09:58:00,82.7,76.3,30.00,ENE,58,6.0,14.0,81,0.00,,,0.00,Wunderground v.1.15,2013-09-11 13:58:00,
2013-09-11 09:59:00,82.7,76.3,30.00,NE,44,7.0,14.0,81,0.00,,,0.00,Wunderground v.1.15,2013-09-11 13:59:00,
2013-09-11 10:00:00,82.6,76.2,30.00,ENE,61,13.0,13.0,81,0.00,,,0.00,Wunderground v.1.15,2013-09-11 14:00:00,
2013-09-11 10:01:00,82.5,76.1,30.00,ENE,58,10.0,13.0,81,0.00,,,0.00,Wunderground v.1.15,2013-09-11 14:01:00,
2013-09-11 10:04:00,82.6,76.5,30.00,NNE,20,9.0,13.0,82,0.00,,,0.00,Wunderground v.1.15,2013-09-11 14:04:00,
2013-09-11 10:05:00,82.6,76.5,30.00,ENE,68,6.0,13.0,82,0.00,,,0.00,Wunderground v.1.15,2013-09-11 14:05:00,
2013-09-11 10:06:00,82.7,76.6,30.00,ENE,62,8.0,13.0,82,0.00,,,0.00,Wunderground v.1.15,2013-09-11 14:06:00,
2013-09-11 10:10:00,82.8,76.4,30.00,ENE,70,9.0,9.0,81,0.00,,,0.00,Wunderground v.1.15,2013-09-11 14:10:00,
2013-09-11 10:11:00,82.8,76.0,30.00,ENE,73,8.0,17.0,80,0.00,,,0.00,Wunderground v.1.15,2013-09-11 14:11:00,
2013-09-11 10:15:00,83.3,76.5,30.00,ENE,62,10.0,20.0,80,0.00,,,0.00,Wunderground v.1.15,2013-09-11 14:15:00,
2013-09-11 10:16:00,83.3,76.5,30.00,ENE,58,12.0,20.0,80,0.00,,,0.00,Wunderground v.1.15,2013-09-11 14:16:00,
2013-09-11 10:17:00,83.4,76.2,30.00,ENE,68,11.0,20.0,79,0.00,,,0.00,Wunderground v.1.15,2013-09-11 14:17:00,
2013-09-11 10:20:00,83.6,76.4,30.00,NE,39,7.0,10.0,79,0.00,,,0.00,Wunderground v.1.15,2013-09-11 14:20:00,
2013-09-11 10:21:00,83.7,76.5,30.00,ENE,68,8.0,10.0,79,0.00,,,0.00,Wunderground v.1.15,2013-09-11 14:21:00,
2013-09-11 10:22:00,83.8,77.0,29.99,East,94,7.0,10.0,80,0.00,,,0.00,Wunderground v.1.15,2013-09-11 14:22:00,
2013-09-11 10:25:00,84.2,76.6,29.99,NE,56,6.0,14.0,78,0.00,,,0.00,Wunderground v.1.15,2013-09-11 14:25:00,
2013-09-11 10:26:00,84.2,76.6,29.99,ENE,63,5.0,14.0,78,0.00,,,0.00,Wunderground v.1.15,2013-09-11 14:26:00,
2013-09-11 10:27:00,84.3,76.7,30.00,East,79,7.0,14.0,78,0.00,,,0.00,Wunderground v.1.15,2013-09-11 14:27:00,
2013-09-11 10:30:00,84.4,76.8,29.99,NNE,18,11.0,11.0,78,0.00,,,0.00,Wunderground v.1.15,2013-09-11 14:30:00,
2013-09-11 10:31:00,84.5,76.5,29.99,ENE,62,6.0,11.0,77,0.00,,,0.00,Wunderground v.1.15,2013-09-11 14:31:00,
2013-09-11 10:32:00,84.5,76.5,30.00,ENE,69,9.0,17.0,77,0.00,,,0.00,Wunderground v.1.15,2013-09-11 14:32:00,
2013-09-11 10:35:00,84.1,76.1,30.00,ENE,60,9.0,17.0,77,0.00,,,0.00,Wunderground v.1.15,2013-09-11 14:35:00,
2013-09-11 10:36:00,84.0,76.0,30.00,NNE,30,5.0,17.0,77,0.00,,,0.00,Wunderground v.1.15,2013-09-11 14:36:00,
2013-09-11 10:37:00,83.9,75.9,30.00,NNE,30,4.0,17.0,77,0.00,,,0.00,Wunderground v.1.15,2013-09-11 14:37:00,
2013-09-11 10:38:00,83.9,75.9,30.00,East,86,11.0,17.0,77,0.00,,,0.00,Wunderground v.1.15,2013-09-11 14:38:00,
2013-09-11 10:41:00,83.9,76.3,30.00,NE,46,8.0,11.0,78,0.00,,,0.00,Wunderground v.1.15,2013-09-11 14:41:00,
2013-09-11 10:42:00,83.9,75.9,30.00,ENE,78,8.0,11.0,77,0.00,,,0.00,Wunderground v.1.15,2013-09-11 14:42:00,
2013-09-11 10:43:00,83.9,76.3,30.00,ENE,72,5.0,11.0,78,0.00,,,0.00,Wunderground v.1.15,2013-09-11 14:43:00,
2013-09-11 10:46:00,84.0,76.4,30.00,ENE,78,7.0,11.0,78,0.00,,,0.00,Wunderground v.1.15,2013-09-11 14:46:00,
2013-09-11 10:47:00,83.9,76.3,30.00,NE,45,5.0,11.0,78,0.00,,,0.00,Wunderground v.1.15,2013-09-11 14:47:00,
2013-09-11 10:48:00,83.9,75.9,30.00,ENE,71,7.0,15.0,77,0.00,,,0.00,Wunderground v.1.15,2013-09-11 14:48:00,
2013-09-11 10:49:00,83.9,76.3,30.00,ENE,60,9.0,15.0,78,0.00,,,0.00,Wunderground v.1.15,2013-09-11 14:49:00,
2013-09-11 10:51:00,84.0,76.0,30.00,NNE,32,7.0,10.0,77,0.00,,,0.00,Wunderground v.1.15,2013-09-11 14:51:00,
2013-09-11 10:52:00,84.1,76.1,29.99,ENE,70,8.0,11.0,77,0.00,,,0.00,Wunderground v.1.15,2013-09-11 14:52:00,
2013-09-11 10:56:00,84.0,76.0,29.99,East,96,2.0,13.0,77,0.00,,,0.00,Wunderground v.1.15,2013-09-11 14:56:00,
2013-09-11 10:57:00,84.0,76.4,30.00,North,353,9.0,13.0,78,0.00,,,0.00,Wunderground v.1.15,2013-09-11 14:57:00,
2013-09-11 11:01:00,84.0,76.4,30.00,ENE,72,6.0,10.0,78,0.00,,,0.00,Wunderground v.1.15,2013-09-11 15:01:00,
2013-09-11 11:02:00,84.1,76.5,30.00,NE,44,7.0,13.0,78,0.00,,,0.00,Wunderground v.1.15,2013-09-11 15:02:00,
2013-09-11 11:06:00,84.4,76.8,29.99,ENE,65,5.0,15.0,78,0.00,,,0.00,Wunderground v.1.15,2013-09-11 15:06:00,
2013-09-11 11:07:00,84.6,76.6,29.99,ENE,73,8.0,15.0,77,0.00,,,0.00,Wunderground v.1.15,2013-09-11 15:07:00,
2013-09-11 11:11:00,85.2,76.8,29.99,ENE,67,6.0,10.0,76,0.00,,,0.00,Wunderground v.1.15,2013-09-11 15:11:00,
2013-09-11 11:12:00,85.4,77.0,29.99,NE,44,9.0,10.0,76,0.00,,,0.00,Wunderground v.1.15,2013-09-11 15:12:00,
2013-09-11 11:13:00,85.4,77.0,29.99,NNE,25,4.0,10.0,76,0.00,,,0.00,Wunderground v.1.15,2013-09-11 15:13:00,
2013-09-11 11:16:00,85.5,76.7,29.99,ENE,63,8.0,11.0,75,0.00,,,0.00,Wunderground v.1.15,2013-09-11 15:16:00,
2013-09-11 11:17:00,85.5,76.3,29.99,East,87,4.0,11.0,74,0.00,,,0.00,Wunderground v.1.15,2013-09-11 15:17:00,
2013-09-11 11:18:00,85.5,76.7,29.99,ENE,69,7.0,11.0,75,0.00,,,0.00,Wunderground v.1.15,2013-09-11 15:18:00,
2013-09-11 11:19:00,85.4,76.6,29.99,ENE,63,10.0,17.0,75,0.00,,,0.00,Wunderground v.1.15,2013-09-11 15:19:00,
2013-09-11 11:21:00,85.0,75.8,29.99,ENE,61,8.0,15.0,74,0.00,,,0.00,Wunderground v.1.15,2013-09-11 15:21:00,
2013-09-11 11:22:00,84.8,76.0,30.00,ENE,77,8.0,15.0,75,0.00,,,0.00,Wunderground v.1.15,2013-09-11 15:22:00,
2013-09-11 11:23:00,84.6,75.8,29.99,ENE,70,5.0,15.0,75,0.00,,,0.00,Wunderground v.1.15,2013-09-11 15:23:00,
2013-09-11 11:24:00,84.5,76.1,29.99,ENE,65,6.0,15.0,76,0.00,,,0.00,Wunderground v.1.15,2013-09-11 15:24:00,
2013-09-11 11:25:00,84.5,76.1,30.00,North,355,5.0,15.0,76,0.00,,,0.00,Wunderground v.1.15,2013-09-11 15:25:00,
2013-09-11 11:26:00,84.4,76.0,30.00,ENE,69,11.0,15.0,76,0.00,,,0.00,Wunderground v.1.15,2013-09-11 15:26:00,
2013-09-11 11:28:00,84.4,75.6,30.00,East,86,8.0,15.0,75,0.00,,,0.00,Wunderground v.1.15,2013-09-11 15:28:00,
2013-09-11 11:29:00,84.5,76.1,29.99,East,80,9.0,15.0,76,0.00,,,0.00,Wunderground v.1.15,2013-09-11 15:29:00,
2013-09-11 11:30:00,84.7,75.9,29.99,East,82,9.0,9.0,75,0.00,,,0.00,Wunderground v.1.15,2013-09-11 15:30:00,
2013-09-11 11:31:00,85.0,75.8,30.00,East,96,8.0,16.0,74,0.00,,,0.00,Wunderground v.1.15,2013-09-11 15:31:00,
2013-09-11 11:33:00,85.3,76.1,29.99,ENE,63,9.0,16.0,74,0.00,,,0.00,Wunderground v.1.15,2013-09-11 15:33:00,
2013-09-11 11:34:00,85.5,76.3,29.99,NE,55,4.0,16.0,74,0.00,,,0.00,Wunderground v.1.15,2013-09-11 15:34:00,
2013-09-11 11:35:00,85.8,76.1,29.99,East,84,13.0,16.0,73,0.00,,,0.00,Wunderground v.1.15,2013-09-11 15:35:00,
2013-09-11 11:36:00,85.9,75.8,29.99,ENE,75,7.0,16.0,72,0.00,,,0.00,Wunderground v.1.15,2013-09-11 15:36:00,
2013-09-11 11:38:00,86.1,76.0,29.99,ENE,75,14.0,16.0,72,0.00,,,0.00,Wunderground v.1.15,2013-09-11 15:38:00,
2013-09-11 11:40:00,86.1,75.6,29.99,SE,126,5.0,9.0,71,0.00,,,0.00,Wunderground v.1.15,2013-09-11 15:40:00,
2013-09-11 11:41:00,86.2,76.1,29.99,East,80,5.0,9.0,72,0.00,,,0.00,Wunderground v.1.15,2013-09-11 15:41:00,
2013-09-11 11:43:00,86.3,75.4,29.99,East,82,10.0,17.0,70,0.00,,,0.00,Wunderground v.1.15,2013-09-11 15:43:00,
2013-09-11 11:45:00,86.4,75.5,29.99,ENE,58,9.0,17.0,70,0.00,,,0.00,Wunderground v.1.15,2013-09-11 15:45:00,
2013-09-11 11:46:00,86.4,75.5,29.99,ENE,68,5.0,17.0,70,0.00,,,0.00,Wunderground v.1.15,2013-09-11 15:46:00,
2013-09-11 11:48:00,86.6,76.1,29.99,ENE,72,9.0,17.0,71,0.00,,,0.00,Wunderground v.1.15,2013-09-11 15:48:00,
2013-09-11 11:51:00,86.6,75.6,29.99,NE,40,10.0,16.0,70,0.00,,,0.00,Wunderground v.1.15,2013-09-11 15:51:00,
2013-09-11 11:52:00,86.6,75.6,29.99,ENE,73,9.0,17.0,70,0.00,,,0.00,Wunderground v.1.15,2013-09-11 15:52:00,
2013-09-11 11:53:00,86.6,75.2,29.99,East,80,11.0,17.0,69,0.00,,,0.00,Wunderground v.1.15,2013-09-11 15:53:00,
2013-09-11 11:57:00,86.8,75.8,29.99,East,85,8.0,17.0,70,0.00,,,0.00,Wunderground v.1.15,2013-09-11 15:57:00,
2013-09-11 11:58:00,87.0,76.0,29.99,ENE,73,10.0,17.0,70,0.00,,,0.00,Wunderground v.1.15,2013-09-11 15:58:00,
2013-09-11 12:02:00,87.2,76.2,29.99,ENE,62,7.0,11.0,70,0.00,,,0.00,Wunderground v.1.15,2013-09-11 16:02:00,
2013-09-11 12:03:00,87.3,75.9,29.99,NE,34,2.0,11.0,69,0.00,,,0.00,Wunderground v.1.15,2013-09-11 16:03:00,
2013-09-11 12:07:00,87.3,75.4,29.99,NNE,27,11.0,17.0,68,0.00,,,0.00,Wunderground v.1.15,2013-09-11 16:07:00,
2013-09-11 12:08:00,87.3,75.9,29.99,NNE,32,4.0,17.0,69,0.00,,,0.00,Wunderground v.1.15,2013-09-11 16:08:00,
2013-09-11 12:09:00,87.3,75.9,29.99,NNE,30,12.0,17.0,69,0.00,,,0.00,Wunderground v.1.15,2013-09-11 16:09:00,
2013-09-11 12:12:00,87.3,75.9,29.99,East,94,4.0,14.0,69,0.00,,,0.00,Wunderground v.1.15,2013-09-11 16:12:00,
2013-09-11 12:13:00,87.5,75.6,29.99,ENE,72,9.0,14.0,68,0.00,,,0.00,Wunderground v.1.15,2013-09-11 16:13:00,
2013-09-11 12:14:00,87.5,75.6,29.99,NE,51,6.0,14.0,68,0.00,,,0.00,Wunderground v.1.15,2013-09-11 16:14:00,
2013-09-11 12:17:00,87.5,75.6,29.99,NE,51,4.0,14.0,68,0.00,,,0.00,Wunderground v.1.15,2013-09-11 16:17:00,
2013-09-11 12:18:00,87.4,75.5,29.99,East,79,6.0,14.0,68,0.00,,,0.00,Wunderground v.1.15,2013-09-11 16:18:00,
2013-09-11 12:19:00,87.4,76.0,29.99,NE,34,10.0,14.0,69,0.00,,,0.00,Wunderground v.1.15,2013-09-11 16:19:00,
2013-09-11 12:22:00,87.2,75.3,29.99,NE,49,12.0,17.0,68,0.00,,,0.00,Wunderground v.1.15,2013-09-11 16:22:00,
2013-09-11 12:23:00,87.0,75.2,29.98,NE,34,4.0,17.0,68,0.00,,,0.00,Wunderground v.1.15,2013-09-11 16:23:00,
2013-09-11 12:24:00,86.9,75.1,29.98,ENE,71,5.0,17.0,68,0.00,,,0.00,Wunderground v.1.15,2013-09-11 16:24:00,
2013-09-11 12:25:00,86.8,75.0,29.98,NE,54,11.0,17.0,68,0.00,,,0.00,Wunderground v.1.15,2013-09-11 16:25:00,
2013-09-11 12:27:00,86.5,75.1,29.98,NE,41,7.0,17.0,69,0.00,,,0.00,Wunderground v.1.15,2013-09-11 16:27:00,
2013-09-11 12:29:00,86.5,75.1,29.98,NE,51,12.0,17.0,69,0.00,,,0.00,Wunderground v.1.15,2013-09-11 16:29:00,
2013-09-11 12:30:00,86.5,75.1,29.98,East,86,9.0,10.0,69,0.00,,,0.00,Wunderground v.1.15,2013-09-11 16:30:00,
2013-09-11 12:32:00,86.8,75.8,29.98,ENE,68,5.0,12.0,70,0.00,,,0.00,Wunderground v.1.15,2013-09-11 16:32:00,
2013-09-11 12:35:00,87.2,75.3,29.98,East,91,9.0,12.0,68,0.00,,,0.00,Wunderground v.1.15,2013-09-11 16:35:00,
2013-09-11 12:37:00,87.6,75.3,29.98,NE,49,12.0,19.0,67,0.00,,,0.00,Wunderground v.1.15,2013-09-11 16:37:00,
2013-09-11 12:40:00,87.6,75.7,29.98,ENE,78,8.0,8.0,68,0.00,,,0.00,Wunderground v.1.15,2013-09-11 16:40:00,
2013-09-11 12:41:00,87.7,75.4,29.98,NE,49,5.0,12.0,67,0.00,,,0.00,Wunderground v.1.15,2013-09-11 16:41:00,
2013-09-11 12:42:00,87.8,75.9,29.98,East,87,11.0,12.0,68,0.00,,,0.00,Wunderground v.1.15,2013-09-11 16:42:00,
2013-09-11 12:45:00,87.9,75.1,29.98,ENE,58,11.0,15.0,66,0.00,,,0.00,Wunderground v.1.15,2013-09-11 16:45:00,
2013-09-11 12:46:00,87.8,75.0,29.98,NE,51,10.0,15.0,66,0.00,,,0.00,Wunderground v.1.15,2013-09-11 16:46:00,
2013-09-11 12:47:00,87.8,75.0,29.98,East,94,10.0,15.0,66,0.00,,,0.00,Wunderground v.1.15,2013-09-11 16:47:00,
2013-09-11 12:48:00,87.8,75.0,29.98,ENE,70,10.0,15.0,66,0.00,,,0.00,Wunderground v.1.15,2013-09-11 16:48:00,
2013-09-11 12:50:00,87.7,75.4,29.98,ENE,63,6.0,8.0,67,0.00,,,0.00,Wunderground v.1.15,2013-09-11 16:50:00,
2013-09-11 12:51:00,87.7,75.4,29.98,ENE,66,15.0,16.0,67,0.00,,,0.00,Wunderground v.1.15,2013-09-11 16:51:00,
2013-09-11 12:52:00,87.6,74.8,29.98,ENE,65,13.0,16.0,66,0.00,,,0.00,Wunderground v.1.15,2013-09-11 16:52:00,
2013-09-11 12:54:00,87.2,74.9,29.98,ESE,105,10.0,16.0,67,0.00,,,0.00,Wunderground v.1.15,2013-09-11 16:54:00,
2013-09-11 12:55:00,87.1,74.8,29.98,ENE,61,11.0,16.0,67,0.00,,,0.00,Wunderground v.1.15,2013-09-11 16:55:00,
2013-09-11 12:57:00,87.1,75.3,29.98,East,85,7.0,16.0,68,0.00,,,0.00,Wunderground v.1.15,2013-09-11 16:57:00,
2013-09-11 13:00:00,87.6,75.7,29.97,SE,126,4.0,9.0,68,0.00,,,0.00,Wunderground v.1.15,2013-09-11 17:00:00,
2013-09-11 13:01:00,87.9,76.0,29.98,ESE,122,7.0,10.0,68,0.00,,,0.00,Wunderground v.1.15,2013-09-11 17:01:00,
2013-09-11 13:02:00,88.3,75.5,29.97,East,86,5.0,12.0,66,0.00,,,0.00,Wunderground v.1.15,2013-09-11 17:02:00,
2013-09-11 13:03:00,88.3,75.5,29.98,SE,141,6.0,12.0,66,0.00,,,0.00,Wunderground v.1.15,2013-09-11 17:03:00,
2013-09-11 13:05:00,88.5,75.7,29.97,ENE,72,11.0,12.0,66,0.00,,,0.00,Wunderground v.1.15,2013-09-11 17:05:00,
2013-09-11 13:06:00,88.5,75.2,29.97,ENE,72,11.0,15.0,65,0.00,,,0.00,Wunderground v.1.15,2013-09-11 17:06:00,
2013-09-11 13:07:00,88.4,75.1,29.97,ESE,103,7.0,15.0,65,0.00,,,0.00,Wunderground v.1.15,2013-09-11 17:07:00,
2013-09-11 13:08:00,88.4,75.6,29.98,East,85,7.0,15.0,66,0.00,,,0.00,Wunderground v.1.15,2013-09-11 17:08:00,
2013-09-11 13:11:00,88.9,76.1,29.97,East,89,14.0,14.0,66,0.00,,,0.00,Wunderground v.1.15,2013-09-11 17:11:00,
2013-09-11 13:12:00,88.9,76.1,29.97,ENE,60,5.0,14.0,66,0.00,,,0.00,Wunderground v.1.15,2013-09-11 17:12:00,
2013-09-11 13:13:00,88.9,76.1,29.97,ENE,73,4.0,14.0,66,0.00,,,0.00,Wunderground v.1.15,2013-09-11 17:13:00,
2013-09-11 13:14:00,89.1,76.7,29.97,ENE,71,9.0,14.0,67,0.00,,,0.00,Wunderground v.1.15,2013-09-11 17:14:00,
2013-09-11 13:16:00,89.2,75.4,29.98,ESE,104,7.0,19.0,64,0.00,,,0.00,Wunderground v.1.15,2013-09-11 17:16:00,
2013-09-11 13:17:00,89.0,75.2,29.97,ENE,68,11.0,19.0,64,0.00,,,0.00,Wunderground v.1.15,2013-09-11 17:17:00,
2013-09-11 13:18:00,88.9,75.6,29.97,ENE,70,14.0,19.0,65,0.00,,,0.00,Wunderground v.1.15,2013-09-11 17:18:00,
2013-09-11 13:19:00,88.6,75.3,29.97,ESE,105,9.0,19.0,65,0.00,,,0.00,Wunderground v.1.15,2013-09-11 17:19:00,
2013-09-11 13:21:00,88.3,75.5,29.97,NE,51,7.0,12.0,66,0.00,,,0.00,Wunderground v.1.15,2013-09-11 17:21:00,
2013-09-11 13:22:00,88.3,75.5,29.97,ESE,104,5.0,12.0,66,0.00,,,0.00,Wunderground v.1.15,2013-09-11 17:22:00,
2013-09-11 13:23:00,88.4,76.0,29.97,East,85,7.0,12.0,67,0.00,,,0.00,Wunderground v.1.15,2013-09-11 17:23:00,
2013-09-11 13:24:00,88.6,75.8,29.97,East,79,6.0,12.0,66,0.00,,,0.00,Wunderground v.1.15,2013-09-11 17:24:00,
2013-09-11 13:26:00,88.6,74.9,29.97,East,98,11.0,17.0,64,0.00,,,0.00,Wunderground v.1.15,2013-09-11 17:26:00,
2013-09-11 13:27:00,88.5,75.2,29.97,East,86,10.0,17.0,65,0.00,,,0.00,Wunderground v.1.15,2013-09-11 17:27:00,
2013-09-11 13:28:00,88.5,75.7,29.97,ENE,72,13.0,17.0,66,0.00,,,0.00,Wunderground v.1.15,2013-09-11 17:28:00,
2013-09-11 13:29:00,88.6,75.8,29.97,East,98,6.0,17.0,66,0.00,,,0.00,Wunderground v.1.15,2013-09-11 17:29:00,
2013-09-11 13:31:00,88.7,75.4,29.97,ENE,68,10.0,12.0,65,0.00,,,0.00,Wunderground v.1.15,2013-09-11 17:31:00,
2013-09-11 13:33:00,88.8,76.9,29.97,NE,51,9.0,12.0,68,0.00,,,0.00,Wunderground v.1.15,2013-09-11 17:33:00,
2013-09-11 13:35:00,89.0,76.2,29.97,East,91,6.0,16.0,66,0.00,,,0.00,Wunderground v.1.15,2013-09-11 17:35:00,
2013-09-11 13:37:00,89.1,75.8,29.97,ENE,57,14.0,16.0,65,0.00,,,0.00,Wunderground v.1.15,2013-09-11 17:37:00,
2013-09-11 13:38:00,89.0,76.2,29.97,ENE,67,15.0,16.0,66,0.00,,,0.00,Wunderground v.1.15,2013-09-11 17:38:00,
2013-09-11 13:40:00,88.9,76.1,29.97,ENE,70,12.0,17.0,66,0.00,,,0.00,Wunderground v.1.15,2013-09-11 17:40:00,
2013-09-11 13:42:00,88.8,74.6,29.97,East,82,14.0,21.0,63,0.00,,,0.00,Wunderground v.1.15,2013-09-11 17:42:00,
2013-09-11 13:43:00,88.8,74.6,29.97,ENE,71,20.0,21.0,63,0.00,,,0.00,Wunderground v.1.15,2013-09-11 17:43:00,
2013-09-11 13:44:00,88.7,74.5,29.97,ENE,73,15.0,26.0,63,0.00,,,0.00,Wunderground v.1.15,2013-09-11 17:44:00,
2013-09-11 13:46:00,88.3,74.6,29.97,ESE,102,12.0,26.0,64,0.00,,,0.00,Wunderground v.1.15,2013-09-11 17:46:00,
2013-09-11 13:47:00,87.6,74.4,29.97,ENE,66,11.0,26.0,65,0.00,,,0.00,Wunderground v.1.15,2013-09-11 17:47:00,
2013-09-11 13:48:00,87.4,74.2,29.97,East,84,14.0,26.0,65,0.00,,,0.00,Wunderground v.1.15,2013-09-11 17:48:00,
2013-09-11 13:51:00,85.9,73.2,29.97,NNE,27,14.0,21.0,66,0.00,,,0.00,Wunderground v.1.15,2013-09-11 17:51:00,
2013-09-11 13:53:00,85.1,72.5,29.97,ENE,75,15.0,21.0,66,0.00,,,0.00,Wunderground v.1.15,2013-09-11 17:53:00,
2013-09-11 13:56:00,84.3,72.1,29.97,ENE,75,13.0,21.0,67,0.00,,,0.00,Wunderground v.1.15,2013-09-11 17:56:00,
2013-09-11 13:58:00,84.1,72.0,29.97,ENE,72,15.0,21.0,67,0.00,,,0.00,Wunderground v.1.15,2013-09-11 17:58:00,
2013-09-11 14:01:00,83.5,72.3,29.97,East,82,6.0,15.0,69,0.00,,,0.00,Wunderground v.1.15,2013-09-11 18:01:00,
2013-09-11 14:02:00,83.4,72.2,29.97,NE,41,12.0,20.0,69,0.00,,,0.00,Wunderground v.1.15,2013-09-11 18:02:00,
2013-09-11 14:03:00,83.2,72.4,29.97,NE,47,11.0,20.0,70,0.00,,,0.00,Wunderground v.1.15,2013-09-11 18:03:00,
2013-09-11 14:04:00,83.0,72.2,29.97,ENE,69,8.0,20.0,70,0.00,,,0.00,Wunderground v.1.15,2013-09-11 18:04:00,
2013-09-11 14:06:00,82.7,72.7,29.97,ENE,60,5.0,20.0,72,0.00,,,0.00,Wunderground v.1.15,2013-09-11 18:06:00,
2013-09-11 14:07:00,82.7,72.7,29.97,ENE,72,12.0,20.0,72,0.00,,,0.00,Wunderground v.1.15,2013-09-11 18:07:00,
2013-09-11 14:08:00,82.6,73.1,29.97,ENE,77,6.0,20.0,73,0.00,,,0.00,Wunderground v.1.15,2013-09-11 18:08:00,
2013-09-11 14:09:00,82.6,73.5,29.97,East,89,3.0,20.0,74,0.00,,,0.00,Wunderground v.1.15,2013-09-11 18:09:00,
2013-09-11 14:10:00,82.6,73.5,29.97,ENE,68,7.0,9.0,74,0.00,,,0.00,Wunderground v.1.15,2013-09-11 18:10:00,
2013-09-11 14:11:00,82.5,73.8,29.97,ENE,72,7.0,10.0,75,0.00,,,0.00,Wunderground v.1.15,2013-09-11 18:11:00,
2013-09-11 14:12:00,82.5,74.2,29.97,ENE,78,10.0,11.0,76,0.00,,,0.00,Wunderground v.1.15,2013-09-11 18:12:00,
2013-09-11 14:13:00,82.5,73.8,29.97,East,95,2.0,13.0,75,0.00,,,0.00,Wunderground v.1.15,2013-09-11 18:13:00,
2013-09-11 14:15:00,82.5,74.2,29.97,ESE,122,5.0,13.0,76,0.00,,,0.00,Wunderground v.1.15,2013-09-11 18:15:00,
2013-09-11 14:17:00,82.6,74.3,29.97,East,94,4.0,14.0,76,0.00,,,0.00,Wunderground v.1.15,2013-09-11 18:17:00,
2013-09-11 14:19:00,82.8,74.1,29.97,ENE,72,6.0,14.0,75,0.00,,,0.00,Wunderground v.1.15,2013-09-11 18:19:00,
2013-09-11 14:20:00,82.9,73.4,29.97,ESE,111,7.0,16.0,73,0.00,,,0.00,Wunderground v.1.15,2013-09-11 18:20:00,
2013-09-11 14:22:00,83.2,73.6,29.97,ENE,67,11.0,12.0,73,0.00,,,0.00,Wunderground v.1.15,2013-09-11 18:22:00,
2013-09-11 14:24:00,83.4,73.8,29.97,ENE,63,10.0,15.0,73,0.00,,,0.00,Wunderground v.1.15,2013-09-11 18:24:00,
2013-09-11 14:25:00,83.6,73.6,29.97,ENE,67,6.0,15.0,72,0.00,,,0.00,Wunderground v.1.15,2013-09-11 18:25:00,
2013-09-11 14:26:00,83.7,73.7,29.97,ENE,65,5.0,15.0,72,0.00,,,0.00,Wunderground v.1.15,2013-09-11 18:26:00,
2013-09-11 14:28:00,83.9,73.1,29.97,ESE,110,8.0,15.0,70,0.00,,,0.00,Wunderground v.1.15,2013-09-11 18:28:00,
2013-09-11 14:29:00,84.1,73.7,29.97,ENE,66,10.0,15.0,71,0.00,,,0.00,Wunderground v.1.15,2013-09-11 18:29:00,
2013-09-11 14:30:00,84.3,73.0,29.97,East,82,13.0,13.0,69,0.00,,,0.00,Wunderground v.1.15,2013-09-11 18:30:00,
2013-09-11 14:31:00,84.4,73.1,29.96,ESE,105,12.0,17.0,69,0.00,,,0.00,Wunderground v.1.15,2013-09-11 18:31:00,
2013-09-11 14:34:00,84.7,73.0,29.96,ENE,69,9.0,17.0,68,0.00,,,0.00,Wunderground v.1.15,2013-09-11 18:34:00,
2013-09-11 14:35:00,84.7,73.0,29.96,East,86,7.0,17.0,68,0.00,,,0.00,Wunderground v.1.15,2013-09-11 18:35:00,
2013-09-11 14:36:00,84.7,73.0,29.95,East,84,12.0,17.0,68,0.00,,,0.00,Wunderground v.1.15,2013-09-11 18:36:00,
2013-09-11 14:39:00,84.8,73.1,29.95,ENE,60,13.0,17.0,68,0.00,,,0.00,Wunderground v.1.15,2013-09-11 18:39:00,
2013-09-11 14:40:00,84.9,71.8,29.95,ENE,75,14.0,14.0,65,0.00,,,0.00,Wunderground v.1.15,2013-09-11 18:40:00,
2013-09-11 14:41:00,85.0,72.4,29.95,ENE,75,11.0,14.0,66,0.00,,,0.00,Wunderground v.1.15,2013-09-11 18:41:00,
2013-09-11 14:44:00,84.8,71.7,29.95,ENE,61,13.0,18.0,65,0.00,,,0.00,Wunderground v.1.15,2013-09-11 18:44:00,
2013-09-11 14:45:00,84.7,72.1,29.95,ENE,74,11.0,18.0,66,0.00,,,0.00,Wunderground v.1.15,2013-09-11 18:45:00,
2013-09-11 14:47:00,84.6,72.4,29.95,NNE,23,8.0,18.0,67,0.00,,,0.00,Wunderground v.1.15,2013-09-11 18:47:00,
2013-09-11 14:50:00,84.7,72.5,29.95,ENE,68,10.0,18.0,67,0.00,,,0.00,Wunderground v.1.15,2013-09-11 18:50:00,
2013-09-11 14:51:00,84.6,72.4,29.95,ENE,73,11.0,13.0,67,0.00,,,0.00,Wunderground v.1.15,2013-09-11 18:51:00,
2013-09-11 14:55:00,84.6,72.9,29.95,NE,55,7.0,14.0,68,0.00,,,0.00,Wunderground v.1.15,2013-09-11 18:55:00,
2013-09-11 14:56:00,84.8,73.5,29.94,ENE,68,9.0,14.0,69,0.00,,,0.00,Wunderground v.1.15,2013-09-11 18:56:00,
2013-09-11 15:00:00,85.3,74.0,29.94,ENE,75,14.0,17.0,69,0.00,,,0.00,Wunderground v.1.15,2013-09-11 19:00:00,
2013-09-11 15:01:00,85.5,73.7,29.94,East,89,5.0,17.0,68,0.00,,,0.00,Wunderground v.1.15,2013-09-11 19:01:00,
2013-09-11 15:05:00,86.1,74.3,29.94,ESE,112,9.0,17.0,68,0.00,,,0.00,Wunderground v.1.15,2013-09-11 19:05:00,
2013-09-11 15:06:00,86.5,74.2,29.94,East,86,10.0,17.0,67,0.00,,,0.00,Wunderground v.1.15,2013-09-11 19:06:00,
2013-09-11 15:07:00,86.6,73.9,29.94,ESE,103,13.0,17.0,66,0.00,,,0.00,Wunderground v.1.15,2013-09-11 19:07:00,
2013-09-11 15:10:00,86.9,73.7,29.94,East,87,12.0,12.0,65,0.00,,,0.00,Wunderground v.1.15,2013-09-11 19:10:00,
2013-09-11 15:11:00,87.0,73.3,29.94,ENE,58,14.0,17.0,64,0.00,,,0.00,Wunderground v.1.15,2013-09-11 19:11:00,
2013-09-11 15:12:00,86.9,73.7,29.94,East,98,6.0,17.0,65,0.00,,,0.00,Wunderground v.1.15,2013-09-11 19:12:00,
2013-09-11 15:15:00,87.1,74.4,29.94,ENE,75,12.0,17.0,66,0.00,,,0.00,Wunderground v.1.15,2013-09-11 19:15:00,
2013-09-11 15:16:00,87.1,74.4,29.94,NE,47,8.0,17.0,66,0.00,,,0.00,Wunderground v.1.15,2013-09-11 19:16:00,
2013-09-11 15:17:00,87.2,74.5,29.94,ENE,65,6.0,17.0,66,0.00,,,0.00,Wunderground v.1.15,2013-09-11 19:17:00,
2013-09-11 15:20:00,87.2,74.0,29.94,NE,34,8.0,15.0,65,0.00,,,0.00,Wunderground v.1.15,2013-09-11 19:20:00,
2013-09-11 15:21:00,87.2,74.5,29.94,ENE,57,9.0,15.0,66,0.00,,,0.00,Wunderground v.1.15,2013-09-11 19:21:00,
2013-09-11 15:22:00,87.4,75.1,29.93,ESE,112,6.0,15.0,67,0.00,,,0.00,Wunderground v.1.15,2013-09-11 19:22:00,
2013-09-11 15:24:00,87.7,74.9,29.93,ENE,65,7.0,15.0,66,0.00,,,0.00,Wunderground v.1.15,2013-09-11 19:24:00,
2013-09-11 15:26:00,87.8,74.6,29.93,ENE,68,11.0,18.0,65,0.00,,,0.00,Wunderground v.1.15,2013-09-11 19:26:00,
2013-09-11 15:27:00,87.7,74.9,29.93,NE,47,13.0,18.0,66,0.00,,,0.00,Wunderground v.1.15,2013-09-11 19:27:00,
2013-09-11 15:29:00,87.7,74.5,29.93,ENE,61,11.0,20.0,65,0.00,,,0.00,Wunderground v.1.15,2013-09-11 19:29:00,
2013-09-11 15:31:00,87.7,74.5,29.93,ENE,63,10.0,12.0,65,0.00,,,0.00,Wunderground v.1.15,2013-09-11 19:31:00,
2013-09-11 15:32:00,87.8,74.6,29.93,NE,55,9.0,12.0,65,0.00,,,0.00,Wunderground v.1.15,2013-09-11 19:32:00,
2013-09-11 15:33:00,87.8,74.6,29.93,ENE,68,12.0,12.0,65,0.00,,,0.00,Wunderground v.1.15,2013-09-11 19:33:00,
2013-09-11 15:34:00,87.8,74.6,29.93,ENE,77,7.0,16.0,65,0.00,,,0.00,Wunderground v.1.15,2013-09-11 19:34:00,
2013-09-11 15:36:00,87.9,74.7,29.93,NE,47,7.0,16.0,65,0.00,,,0.00,Wunderground v.1.15,2013-09-11 19:36:00,
2013-09-11 15:38:00,88.0,74.3,29.93,NE,54,10.0,17.0,64,0.00,,,0.00,Wunderground v.1.15,2013-09-11 19:38:00,
2013-09-11 15:39:00,87.9,74.2,29.93,East,100,8.0,17.0,64,0.00,,,0.00,Wunderground v.1.15,2013-09-11 19:39:00,
2013-09-11 15:40:00,87.9,74.7,29.93,North,351,5.0,9.0,65,0.00,,,0.00,Wunderground v.1.15,2013-09-11 19:40:00,
2013-09-11 15:41:00,87.9,74.7,29.93,NNE,30,11.0,14.0,65,0.00,,,0.00,Wunderground v.1.15,2013-09-11 19:41:00,
2013-09-11 15:43:00,87.8,74.1,29.93,ENE,76,10.0,14.0,64,0.00,,,0.00,Wunderground v.1.15,2013-09-11 19:43:00,
2013-09-11 15:44:00,87.9,74.2,29.93,NE,49,5.0,14.0,64,0.00,,,0.00,Wunderground v.1.15,2013-09-11 19:44:00,
2013-09-11 15:45:00,87.8,74.1,29.93,NE,51,7.0,14.0,64,0.00,,,0.00,Wunderground v.1.15,2013-09-11 19:45:00,
2013-09-11 15:46:00,87.8,74.1,29.92,NNE,13,6.0,15.0,64,0.00,,,0.00,Wunderground v.1.15,2013-09-11 19:46:00,
2013-09-11 15:49:00,88.0,74.3,29.93,North,10,6.0,15.0,64,0.00,,,0.00,Wunderground v.1.15,2013-09-11 19:49:00,
2013-09-11 15:50:00,88.3,74.6,29.92,East,82,8.0,8.0,64,0.00,,,0.00,Wunderground v.1.15,2013-09-11 19:50:00,
2013-09-11 15:51:00,88.4,74.2,29.92,ENE,68,8.0,15.0,63,0.00,,,0.00,Wunderground v.1.15,2013-09-11 19:51:00,
2013-09-11 15:54:00,88.3,74.1,29.92,NNE,23,3.0,15.0,63,0.00,,,0.00,Wunderground v.1.15,2013-09-11 19:54:00,
2013-09-11 15:55:00,88.3,74.1,29.92,NE,54,8.0,15.0,63,0.00,,,0.00,Wunderground v.1.15,2013-09-11 19:55:00,
2013-09-11 15:56:00,88.3,74.1,29.92,ESE,105,5.0,15.0,63,0.00,,,0.00,Wunderground v.1.15,2013-09-11 19:56:00,
2013-09-11 15:57:00,88.3,74.1,29.92,ENE,63,6.0,15.0,63,0.00,,,0.00,Wunderground v.1.15,2013-09-11 19:57:00,
2013-09-11 16:00:00,88.1,73.4,29.92,ENE,75,10.0,10.0,62,0.00,,,0.00,Wunderground v.1.15,2013-09-11 20:00:00,
2013-09-11 16:01:00,88.1,73.4,29.92,ENE,65,11.0,11.0,62,0.00,,,0.00,Wunderground v.1.15,2013-09-11 20:01:00,
2013-09-11 16:02:00,88.1,73.4,29.92,ENE,74,9.0,12.0,62,0.00,,,0.00,Wunderground v.1.15,2013-09-11 20:02:00,
2013-09-11 16:06:00,88.2,74.0,29.92,NE,43,5.0,14.0,63,0.00,,,0.00,Wunderground v.1.15,2013-09-11 20:06:00,
2013-09-11 16:07:00,88.3,74.1,29.92,NE,47,8.0,14.0,63,0.00,,,0.00,Wunderground v.1.15,2013-09-11 20:07:00,
2013-09-11 16:11:00,88.5,74.3,29.92,ENE,70,10.0,11.0,63,0.00,,,0.00,Wunderground v.1.15,2013-09-11 20:11:00,
2013-09-11 16:12:00,88.4,74.2,29.92,NE,51,6.0,11.0,63,0.00,,,0.00,Wunderground v.1.15,2013-09-11 20:12:00,
2013-09-11 16:16:00,88.4,75.1,29.92,ENE,68,6.0,12.0,65,0.00,,,0.00,Wunderground v.1.15,2013-09-11 20:16:00,
2013-09-11 16:17:00,88.4,74.7,29.92,ENE,76,8.0,12.0,64,0.00,,,0.00,Wunderground v.1.15,2013-09-11 20:17:00,
2013-09-11 16:22:00,88.4,75.6,29.92,ENE,58,5.0,9.0,66,0.00,,,0.00,Wunderground v.1.15,2013-09-11 20:22:00,
2013-09-11 16:23:00,88.5,76.1,29.92,East,89,7.0,9.0,67,0.00,,,0.00,Wunderground v.1.15,2013-09-11 20:23:00,
2013-09-11 16:27:00,88.3,75.9,29.92,ENE,69,9.0,13.0,67,0.00,,,0.00,Wunderground v.1.15,2013-09-11 20:27:00,
2013-09-11 16:28:00,88.2,75.9,29.92,East,82,17.0,17.0,67,0.00,,,0.00,Wunderground v.1.15,2013-09-11 20:28:00,
2013-09-11 16:32:00,87.7,75.4,29.92,ENE,78,3.0,9.0,67,0.00,,,0.00,Wunderground v.1.15,2013-09-11 20:32:00,
2013-09-11 16:33:00,87.6,75.3,29.92,NE,51,2.0,9.0,67,0.00,,,0.00,Wunderground v.1.15,2013-09-11 20:33:00,
2013-09-11 16:37:00,87.4,75.5,29.92,ENE,67,6.0,11.0,68,0.00,,,0.00,Wunderground v.1.15,2013-09-11 20:37:00,
2013-09-11 16:38:00,87.4,75.5,29.92,East,85,9.0,11.0,68,0.00,,,0.00,Wunderground v.1.15,2013-09-11 20:38:00,
2013-09-11 16:39:00,87.4,75.5,29.92,ENE,71,9.0,11.0,68,0.00,,,0.00,Wunderground v.1.15,2013-09-11 20:39:00,
2013-09-11 16:42:00,87.5,75.6,29.92,NNE,31,6.0,13.0,68,0.00,,,0.00,Wunderground v.1.15,2013-09-11 20:42:00,
2013-09-11 16:43:00,87.5,75.6,29.92,ENE,78,7.0,13.0,68,0.00,,,0.00,Wunderground v.1.15,2013-09-11 20:43:00,
2013-09-11 16:44:00,87.5,75.6,29.92,ENE,72,3.0,13.0,68,0.00,,,0.00,Wunderground v.1.15,2013-09-11 20:44:00,
2013-09-11 16:47:00,87.4,75.1,29.92,ENE,70,9.0,13.0,67,0.00,,,0.00,Wunderground v.1.15,2013-09-11 20:47:00,
2013-09-11 16:48:00,87.4,75.1,29.92,ENE,68,9.0,13.0,67,0.00,,,0.00,Wunderground v.1.15,2013-09-11 20:48:00,
2013-09-11 16:50:00,87.5,75.2,29.92,ESE,115,7.0,8.0,67,0.00,,,0.00,Wunderground v.1.15,2013-09-11 20:50:00,
2013-09-11 16:53:00,87.8,75.5,29.92,ESE,106,9.0,10.0,67,0.00,,,0.00,Wunderground v.1.15,2013-09-11 20:53:00,
2013-09-11 16:54:00,87.9,75.6,29.92,ESE,108,7.0,10.0,67,0.00,,,0.00,Wunderground v.1.15,2013-09-11 20:54:00,
2013-09-11 16:55:00,87.9,75.6,29.92,ESE,105,5.0,12.0,67,0.00,,,0.00,Wunderground v.1.15,2013-09-11 20:55:00,
2013-09-11 16:58:00,87.5,75.6,29.92,ESE,115,4.0,12.0,68,0.00,,,0.00,Wunderground v.1.15,2013-09-11 20:58:00,
2013-09-11 16:59:00,87.4,75.5,29.92,East,87,3.0,12.0,68,0.00,,,0.00,Wunderground v.1.15,2013-09-11 20:59:00,
2013-09-11 17:01:00,87.1,75.3,29.92,ESE,115,8.0,8.0,68,0.00,,,0.00,Wunderground v.1.15,2013-09-11 21:01:00,
2013-09-11 17:03:00,86.5,74.2,29.92,East,86,5.0,13.0,67,0.00,,,0.00,Wunderground v.1.15,2013-09-11 21:03:00,
2013-09-11 17:04:00,86.4,74.6,29.92,East,96,5.0,13.0,68,0.00,,,0.00,Wunderground v.1.15,2013-09-11 21:04:00,
2013-09-11 17:06:00,86.3,74.5,29.92,East,84,1.0,13.0,68,0.00,,,0.00,Wunderground v.1.15,2013-09-11 21:06:00,
2013-09-11 17:09:00,86.0,74.2,29.92,ENE,75,4.0,13.0,68,0.00,,,0.00,Wunderground v.1.15,2013-09-11 21:09:00,
2013-09-11 17:11:00,85.9,74.1,29.92,ESE,103,3.0,7.0,68,0.00,,,0.00,Wunderground v.1.15,2013-09-11 21:11:00,
2013-09-11 17:14:00,85.7,73.9,29.92,East,84,4.0,8.0,68,0.00,,,0.00,Wunderground v.1.15,2013-09-11 21:14:00,
2013-09-11 17:16:00,85.7,73.9,29.92,East,86,4.0,8.0,68,0.00,,,0.00,Wunderground v.1.15,2013-09-11 21:16:00,
2013-09-11 17:17:00,85.7,73.9,29.92,East,83,2.0,8.0,68,0.00,,,0.00,Wunderground v.1.15,2013-09-11 21:17:00,
2013-09-11 17:19:00,85.6,73.8,29.92,East,89,6.0,9.0,68,0.00,,,0.00,Wunderground v.1.15,2013-09-11 21:19:00,
2013-09-11 17:20:00,85.6,73.8,29.92,East,82,5.0,9.0,68,0.00,,,0.00,Wunderground v.1.15,2013-09-11 21:20:00,
2013-09-11 17:21:00,85.6,73.8,29.92,ENE,75,3.0,7.0,68,0.00,,,0.00,Wunderground v.1.15,2013-09-11 21:21:00,
2013-09-11 17:22:00,85.6,73.8,29.92,East,97,3.0,7.0,68,0.00,,,0.00,Wunderground v.1.15,2013-09-11 21:22:00,
2013-09-11 17:24:00,85.6,73.8,29.92,ENE,78,3.0,9.0,68,0.00,,,0.00,Wunderground v.1.15,2013-09-11 21:24:00,
2013-09-11 17:25:00,85.5,73.7,29.92,East,81,3.0,9.0,68,0.00,,,0.00,Wunderground v.1.15,2013-09-11 21:25:00,
2013-09-11 17:27:00,85.6,74.3,29.92,ENE,72,2.0,9.0,69,0.00,,,0.00,Wunderground v.1.15,2013-09-11 21:27:00,
2013-09-11 17:29:00,85.6,74.3,29.92,SE,145,2.0,9.0,69,0.00,,,0.00,Wunderground v.1.15,2013-09-11 21:29:00,
2013-09-11 17:30:00,85.6,74.3,29.92,East,82,2.0,4.0,69,0.00,,,0.00,Wunderground v.1.15,2013-09-11 21:30:00,
2013-09-11 17:31:00,85.6,74.3,29.92,ESE,105,0.0,4.0,69,0.00,,,0.00,Wunderground v.1.15,2013-09-11 21:31:00,
2013-09-11 17:32:00,85.8,74.4,29.92,ENE,61,3.0,4.0,69,0.00,,,0.00,Wunderground v.1.15,2013-09-11 21:32:00,
2013-09-11 17:33:00,85.8,74.9,29.92,ESE,103,2.0,4.0,70,0.00,,,0.00,Wunderground v.1.15,2013-09-11 21:33:00,
2013-09-11 17:34:00,86.0,74.6,29.92,ESE,115,3.0,5.0,69,0.00,,,0.00,Wunderground v.1.15,2013-09-11 21:34:00,
2013-09-11 17:35:00,86.0,74.6,29.92,East,93,2.0,5.0,69,0.00,,,0.00,Wunderground v.1.15,2013-09-11 21:35:00,
2013-09-11 17:37:00,86.1,74.7,29.92,ENE,70,2.0,5.0,69,0.00,,,0.00,Wunderground v.1.15,2013-09-11 21:37:00,
2013-09-11 17:38:00,86.2,75.3,29.91,East,80,6.0,7.0,70,0.00,,,0.00,Wunderground v.1.15,2013-09-11 21:38:00,
2013-09-11 17:40:00,86.2,74.8,29.91,NE,44,3.0,7.0,69,0.00,,,0.00,Wunderground v.1.15,2013-09-11 21:40:00,
2013-09-11 17:42:00,86.2,74.8,29.91,East,87,6.0,6.0,69,0.00,,,0.00,Wunderground v.1.15,2013-09-11 21:42:00,
2013-09-11 17:43:00,86.1,74.7,29.91,ENE,62,4.0,6.0,69,0.00,,,0.00,Wunderground v.1.15,2013-09-11 21:43:00,
2013-09-11 17:44:00,86.1,74.7,29.91,East,92,2.0,6.0,69,0.00,,,0.00,Wunderground v.1.15,2013-09-11 21:44:00,
2013-09-11 17:45:00,86.1,74.7,29.91,ENE,60,2.0,6.0,69,0.00,,,0.00,Wunderground v.1.15,2013-09-11 21:45:00,
2013-09-11 17:47:00,86.1,75.2,29.91,North,7,3.0,6.0,70,0.00,,,0.00,Wunderground v.1.15,2013-09-11 21:47:00,
2013-09-11 17:48:00,86.1,75.2,29.91,NNE,29,4.0,6.0,70,0.00,,,0.00,Wunderground v.1.15,2013-09-11 21:48:00,
2013-09-11 17:50:00,86.1,75.2,29.92,NNE,26,6.0,6.0,70,0.00,,,0.00,Wunderground v.1.15,2013-09-11 21:50:00,
2013-09-11 17:53:00,86.0,74.2,29.92,ENE,68,12.0,14.0,68,0.00,,,0.00,Wunderground v.1.15,2013-09-11 21:53:00,
2013-09-11 17:55:00,85.2,73.9,29.92,East,90,11.0,20.0,69,0.00,,,0.00,Wunderground v.1.15,2013-09-11 21:55:00,
2013-09-11 17:58:00,83.1,72.7,29.93,ESE,113,9.0,20.0,71,0.00,,,0.00,Wunderground v.1.15,2013-09-11 21:58:00,
2013-09-11 18:00:00,81.9,72.4,29.93,East,96,8.0,20.0,73,0.00,,,0.00,Wunderground v.1.15,2013-09-11 22:00:00,
2013-09-11 18:01:00,81.0,71.9,29.93,SE,132,6.0,12.0,74,0.00,,,0.00,Wunderground v.1.15,2013-09-11 22:01:00,
2013-09-11 18:03:00,79.3,72.6,29.93,East,81,10.0,12.0,80,0.00,,,0.00,Wunderground v.1.15,2013-09-11 22:03:00,
2013-09-11 18:04:00,79.1,72.4,29.93,ESE,105,8.0,12.0,80,0.00,,,0.00,Wunderground v.1.15,2013-09-11 22:04:00,
2013-09-11 18:05:00,78.7,72.0,29.94,ESE,113,3.0,12.0,80,0.00,,,0.01,Wunderground v.1.15,2013-09-11 22:05:00,
2013-09-11 18:06:00,78.3,72.0,29.93,SE,135,10.0,12.0,81,0.00,,,0.01,Wunderground v.1.15,2013-09-11 22:06:00,
2013-09-11 18:09:00,77.5,71.6,29.93,SE,132,5.0,12.0,82,0.00,,,0.01,Wunderground v.1.15,2013-09-11 22:09:00,
2013-09-11 18:10:00,77.2,71.6,29.93,SSE,153,6.0,7.0,83,0.00,,,0.01,Wunderground v.1.15,2013-09-11 22:10:00,
2013-09-11 18:11:00,77.0,71.8,29.93,SE,136,2.0,7.0,84,0.00,,,0.01,Wunderground v.1.15,2013-09-11 22:11:00,
2013-09-11 18:14:00,76.4,71.9,29.93,East,100,3.0,7.0,86,0.00,,,0.01,Wunderground v.1.15,2013-09-11 22:14:00,
2013-09-11 18:15:00,76.4,71.9,29.93,SE,125,2.0,7.0,86,0.00,,,0.01,Wunderground v.1.15,2013-09-11 22:15:00,
2013-09-11 18:16:00,76.2,72.0,29.94,SE,130,2.0,7.0,87,0.00,,,0.01,Wunderground v.1.15,2013-09-11 22:16:00,
2013-09-11 18:19:00,76.1,72.3,29.94,SE,128,3.0,9.0,88,0.00,,,0.01,Wunderground v.1.15,2013-09-11 22:19:00,
2013-09-11 18:20:00,76.1,72.3,29.94,SE,134,1.0,3.0,88,0.00,,,0.01,Wunderground v.1.15,2013-09-11 22:20:00,
2013-09-11 18:21:00,76.2,72.4,29.94,SE,132,2.0,3.0,88,0.00,,,0.01,Wunderground v.1.15,2013-09-11 22:21:00,
2013-09-11 18:25:00,76.4,72.9,29.94,SE,125,2.0,4.0,89,0.00,,,0.01,Wunderground v.1.15,2013-09-11 22:25:00,
2013-09-11 18:26:00,76.4,72.9,29.94,SSW,201,2.0,4.0,89,0.00,,,0.01,Wunderground v.1.15,2013-09-11 22:26:00,
2013-09-11 18:30:00,76.5,73.0,29.94,South,189,2.0,4.0,89,0.00,,,0.01,Wunderground v.1.15,2013-09-11 22:30:00,
2013-09-11 18:31:00,76.6,73.1,29.94,South,183,4.0,4.0,89,0.00,,,0.01,Wunderground v.1.15,2013-09-11 22:31:00,
2013-09-11 18:32:00,76.6,73.1,29.94,SSW,193,1.0,5.0,89,0.00,,,0.01,Wunderground v.1.15,2013-09-11 22:32:00,
2013-09-11 18:35:00,76.8,73.6,29.94,SSE,158,1.0,5.0,90,0.00,,,0.01,Wunderground v.1.15,2013-09-11 22:35:00,
2013-09-11 18:36:00,76.8,73.6,29.94,South,173,2.0,5.0,90,0.00,,,0.01,Wunderground v.1.15,2013-09-11 22:36:00,
2013-09-11 18:38:00,76.8,73.6,29.94,South,173,1.0,5.0,90,0.00,,,0.01,Wunderground v.1.15,2013-09-11 22:38:00,
2013-09-11 18:40:00,76.8,73.6,29.94,SSW,193,1.0,2.0,90,0.00,,,0.01,Wunderground v.1.15,2013-09-11 22:40:00,
2013-09-11 18:41:00,76.8,73.6,29.94,South,187,1.0,2.0,90,0.00,,,0.01,Wunderground v.1.15,2013-09-11 22:41:00,
2013-09-11 18:44:00,76.8,73.6,29.94,SSE,158,2.0,3.0,90,0.00,,,0.01,Wunderground v.1.15,2013-09-11 22:44:00,
2013-09-11 18:45:00,76.8,73.3,29.94,SSE,165,1.0,3.0,89,0.00,,,0.01,Wunderground v.1.15,2013-09-11 22:45:00,
2013-09-11 18:46:00,76.8,73.3,29.94,South,191,2.0,3.0,89,0.00,,,0.01,Wunderground v.1.15,2013-09-11 22:46:00,
2013-09-11 18:49:00,76.8,73.3,29.94,SE,133,0.0,3.0,89,0.00,,,0.01,Wunderground v.1.15,2013-09-11 22:49:00,
2013-09-11 18:50:00,76.9,73.4,29.94,SE,132,0.0,1.0,89,0.00,,,0.01,Wunderground v.1.15,2013-09-11 22:50:00,
2013-09-11 18:51:00,76.9,73.4,29.94,SE,132,0.0,1.0,89,0.00,,,0.01,Wunderground v.1.15,2013-09-11 22:51:00,
2013-09-11 18:52:00,77.0,73.5,29.94,SE,132,0.0,1.0,89,0.00,,,0.01,Wunderground v.1.15,2013-09-11 22:52:00,
2013-09-11 18:55:00,77.0,73.5,29.94,SE,133,0.0,1.0,89,0.00,,,0.01,Wunderground v.1.15,2013-09-11 22:55:00,
2013-09-11 18:56:00,77.1,73.6,29.94,SE,132,0.0,1.0,89,0.00,,,0.01,Wunderground v.1.15,2013-09-11 22:56:00,
2013-09-11 18:58:00,77.2,73.7,29.94,SE,133,0.0,1.0,89,0.00,,,0.01,Wunderground v.1.15,2013-09-11 22:58:00,
2013-09-11 19:00:00,77.1,73.6,29.93,SE,133,0.0,0.0,89,0.00,,,0.01,Wunderground v.1.15,2013-09-11 23:00:00,
2013-09-11 19:01:00,77.1,73.6,29.93,SE,132,0.0,0.0,89,0.00,,,0.01,Wunderground v.1.15,2013-09-11 23:01:00,
2013-09-11 19:03:00,77.2,74.0,29.93,SE,132,0.0,0.0,90,0.00,,,0.01,Wunderground v.1.15,2013-09-11 23:03:00,
2013-09-11 19:04:00,77.3,74.1,29.93,SE,132,0.0,0.0,90,0.00,,,0.01,Wunderground v.1.15,2013-09-11 23:04:00,
2013-09-11 19:05:00,77.2,73.7,29.93,SE,132,0.0,0.0,89,0.00,,,0.01,Wunderground v.1.15,2013-09-11 23:05:00,
2013-09-11 19:06:00,77.2,73.7,29.93,SE,132,0.0,0.0,89,0.00,,,0.01,Wunderground v.1.15,2013-09-11 23:06:00,
2013-09-11 19:09:00,77.2,74.0,29.93,SE,132,0.0,0.0,90,0.00,,,0.01,Wunderground v.1.15,2013-09-11 23:09:00,
2013-09-11 19:10:00,77.3,74.1,29.93,SE,133,0.0,0.0,90,0.00,,,0.01,Wunderground v.1.15,2013-09-11 23:10:00,
2013-09-11 19:11:00,77.3,74.1,29.93,SE,132,0.0,0.0,90,0.00,,,0.01,Wunderground v.1.15,2013-09-11 23:11:00,
2013-09-11 19:14:00,77.8,75.0,29.93,SE,132,0.0,1.0,91,0.00,,,0.01,Wunderground v.1.15,2013-09-11 23:14:00,
2013-09-11 19:15:00,77.8,75.0,29.93,SE,131,0.0,1.0,91,0.00,,,0.01,Wunderground v.1.15,2013-09-11 23:15:00,
2013-09-11 19:16:00,77.9,75.1,29.93,SE,132,1.0,1.0,91,0.00,,,0.01,Wunderground v.1.15,2013-09-11 23:16:00,
2013-09-11 19:17:00,77.8,74.6,29.93,SE,132,1.0,1.0,90,0.00,,,0.01,Wunderground v.1.15,2013-09-11 23:17:00,
2013-09-11 19:20:00,77.8,74.6,29.93,SE,135,0.0,0.0,90,0.00,,,0.01,Wunderground v.1.15,2013-09-11 23:20:00,
2013-09-11 19:21:00,77.9,74.7,29.93,SE,136,0.0,0.0,90,0.00,,,0.01,Wunderground v.1.15,2013-09-11 23:21:00,
2013-09-11 19:22:00,77.9,74.7,29.93,SSE,165,1.0,1.0,90,0.00,,,0.01,Wunderground v.1.15,2013-09-11 23:22:00,
2013-09-11 19:23:00,77.9,74.7,29.93,SSW,205,1.0,2.0,90,0.00,,,0.01,Wunderground v.1.15,2013-09-11 23:23:00,
2013-09-11 19:25:00,77.9,74.7,29.93,SSW,207,1.0,3.0,90,0.00,,,0.01,Wunderground v.1.15,2013-09-11 23:25:00,
2013-09-11 19:26:00,77.8,74.6,29.93,South,178,1.0,3.0,90,0.00,,,0.01,Wunderground v.1.15,2013-09-11 23:26:00,
2013-09-11 19:27:00,77.9,74.7,29.93,SSW,194,1.0,3.0,90,0.00,,,0.01,Wunderground v.1.15,2013-09-11 23:27:00,
2013-09-11 19:29:00,77.9,74.7,29.93,SSW,194,2.0,3.0,90,0.00,,,0.01,Wunderground v.1.15,2013-09-11 23:29:00,
2013-09-11 19:31:00,77.9,74.7,29.93,South,187,1.0,2.0,90,0.00,,,0.01,Wunderground v.1.15,2013-09-11 23:31:00,
2013-09-11 19:32:00,78.0,74.8,29.93,South,175,0.0,2.0,90,0.00,,,0.01,Wunderground v.1.15,2013-09-11 23:32:00,
2013-09-11 19:35:00,78.0,75.2,29.93,South,175,0.0,2.0,91,0.00,,,0.01,Wunderground v.1.15,2013-09-11 23:35:00,
2013-09-11 19:36:00,78.0,75.2,29.93,South,174,0.0,2.0,91,0.00,,,0.01,Wunderground v.1.15,2013-09-11 23:36:00,
2013-09-11 19:37:00,77.9,75.1,29.93,South,174,0.0,2.0,91,0.00,,,0.01,Wunderground v.1.15,2013-09-11 23:37:00,
2013-09-11 19:40:00,77.8,75.0,29.93,South,175,0.0,1.0,91,0.00,,,0.01,Wunderground v.1.15,2013-09-11 23:40:00,
2013-09-11 19:41:00,77.8,75.0,29.93,South,175,0.0,1.0,91,0.00,,,0.01,Wunderground v.1.15,2013-09-11 23:41:00,
2013-09-11 19:42:00,77.8,75.0,29.93,South,174,0.0,1.0,91,0.00,,,0.01,Wunderground v.1.15,2013-09-11 23:42:00,
2013-09-11 19:43:00,77.8,75.0,29.93,South,174,0.0,1.0,91,0.00,,,0.01,Wunderground v.1.15,2013-09-11 23:43:00,
2013-09-11 19:46:00,77.7,74.9,29.93,South,174,0.0,1.0,91,0.00,,,0.01,Wunderground v.1.15,2013-09-11 23:46:00,
2013-09-11 19:47:00,77.7,75.2,29.93,South,174,0.0,1.0,92,0.00,,,0.01,Wunderground v.1.15,2013-09-11 23:47:00,
2013-09-11 19:48:00,77.8,75.3,29.93,South,174,0.0,1.0,92,0.00,,,0.01,Wunderground v.1.15,2013-09-11 23:48:00,
2013-09-11 19:49:00,77.7,75.2,29.93,South,174,1.0,1.0,92,0.00,,,0.01,Wunderground v.1.15,2013-09-11 23:49:00,
2013-09-11 19:51:00,77.7,75.2,29.93,South,174,1.0,1.0,92,0.00,,,0.01,Wunderground v.1.15,2013-09-11 23:51:00,
2013-09-11 19:53:00,77.7,75.2,29.93,South,175,1.0,1.0,92,0.00,,,0.01,Wunderground v.1.15,2013-09-11 23:53:00,
2013-09-11 19:54:00,77.7,74.9,29.93,South,174,1.0,1.0,91,0.00,,,0.01,Wunderground v.1.15,2013-09-11 23:54:00,
2013-09-11 19:56:00,77.9,75.1,29.94,South,175,0.0,1.0,91,0.00,,,0.01,Wunderground v.1.15,2013-09-11 23:56:00,
2013-09-11 19:57:00,78.0,75.2,29.94,SSE,166,1.0,1.0,91,0.00,,,0.01,Wunderground v.1.15,2013-09-11 23:57:00,
2013-09-11 19:58:00,78.0,75.2,29.94,SSE,167,1.0,1.0,91,0.00,,,0.01,Wunderground v.1.15,2013-09-11 23:58:00,
2013-09-11 19:59:00,78.0,75.2,29.94,SE,125,1.0,2.0,91,0.00,,,0.01,Wunderground v.1.15,2013-09-11 23:59:00,
2013-09-11 20:00:00,78.0,74.8,29.94,SE,125,2.0,2.0,90,0.00,,,0.01,Wunderground v.1.15,2013-09-12 00:00:00,
2013-09-11 20:01:00,78.0,74.8,29.94,ESE,122,1.0,2.0,90,0.00,,,0.01,Wunderground v.1.15,2013-09-12 00:01:00,
2013-09-11 20:03:00,78.2,75.0,29.94,ESE,122,0.0,2.0,90,0.00,,,0.01,Wunderground v.1.15,2013-09-12 00:03:00,
2013-09-11 20:04:00,78.3,75.1,29.94,ESE,123,0.0,2.0,90,0.00,,,0.01,Wunderground v.1.15,2013-09-12 00:04:00,
2013-09-11 20:05:00,78.3,75.1,29.94,ESE,104,1.0,2.0,90,0.00,,,0.01,Wunderground v.1.15,2013-09-12 00:05:00,
2013-09-11 20:06:00,78.3,75.1,29.94,ESE,104,1.0,2.0,90,0.00,,,0.01,Wunderground v.1.15,2013-09-12 00:06:00,
2013-09-11 20:08:00,78.3,75.1,29.94,ENE,75,1.0,2.0,90,0.00,,,0.01,Wunderground v.1.15,2013-09-12 00:08:00,
2013-09-11 20:10:00,78.3,75.1,29.94,East,79,0.0,2.0,90,0.00,,,0.01,Wunderground v.1.15,2013-09-12 00:10:00,
2013-09-11 20:11:00,78.4,75.2,29.94,East,79,0.0,1.0,90,0.00,,,0.01,Wunderground v.1.15,2013-09-12 00:11:00,
2013-09-11 20:13:00,78.4,75.2,29.94,East,79,0.0,1.0,90,0.00,,,0.01,Wunderground v.1.15,2013-09-12 00:13:00,
2013-09-11 20:14:00,78.4,75.2,29.94,East,79,1.0,1.0,90,0.00,,,0.01,Wunderground v.1.15,2013-09-12 00:14:00,
2013-09-11 20:15:00,78.4,75.2,29.95,East,80,1.0,2.0,90,0.00,,,0.01,Wunderground v.1.15,2013-09-12 00:15:00,
2013-09-11 20:16:00,78.4,75.2,29.94,East,80,2.0,2.0,90,0.00,,,0.01,Wunderground v.1.15,2013-09-12 00:16:00,
2013-09-11 20:18:00,78.4,75.2,29.95,East,96,1.0,3.0,90,0.00,,,0.01,Wunderground v.1.15,2013-09-12 00:18:00,
2013-09-11 20:19:00,78.4,75.2,29.95,East,101,2.0,3.0,90,0.00,,,0.01,Wunderground v.1.15,2013-09-12 00:19:00,
2013-09-11 20:20:00,78.5,75.3,29.94,East,101,3.0,3.0,90,0.00,,,0.01,Wunderground v.1.15,2013-09-12 00:20:00,
2013-09-11 20:21:00,78.4,75.2,29.95,NE,56,5.0,6.0,90,0.00,,,0.01,Wunderground v.1.15,2013-09-12 00:21:00,
2013-09-11 20:22:00,78.5,75.3,29.95,ENE,75,3.0,6.0,90,0.00,,,0.01,Wunderground v.1.15,2013-09-12 00:22:00,
2013-09-11 20:24:00,78.5,75.3,29.95,ENE,66,17.0,17.0,90,0.00,,,0.01,Wunderground v.1.15,2013-09-12 00:24:00,
2013-09-11 20:25:00,78.6,75.1,29.96,ENE,70,17.0,18.0,89,0.00,,,0.01,Wunderground v.1.15,2013-09-12 00:25:00,
2013-09-11 20:26:00,78.5,74.3,29.96,East,82,19.0,19.0,87,0.00,,,0.01,Wunderground v.1.15,2013-09-12 00:26:00,
2013-09-11 20:27:00,78.5,74.3,29.96,ENE,67,16.0,19.0,87,0.00,,,0.02,Wunderground v.1.15,2013-09-12 00:27:00,
2013-09-11 20:29:00,78.4,73.9,29.96,ENE,75,10.0,19.0,86,0.00,,,0.02,Wunderground v.1.15,2013-09-12 00:29:00,
2013-09-11 20:30:00,78.2,73.7,29.96,East,79,9.0,13.0,86,0.00,,,0.02,Wunderground v.1.15,2013-09-12 00:30:00,
2013-09-11 20:31:00,78.1,73.6,29.96,ENE,67,9.0,17.0,86,0.00,,,0.02,Wunderground v.1.15,2013-09-12 00:31:00,
2013-09-11 20:32:00,77.9,73.4,29.96,ENE,57,7.0,17.0,86,0.00,,,0.02,Wunderground v.1.15,2013-09-12 00:32:00,
2013-09-11 20:34:00,77.8,73.3,29.96,ENE,73,11.0,17.0,86,0.00,,,0.02,Wunderground v.1.15,2013-09-12 00:34:00,
2013-09-11 20:36:00,77.6,72.4,29.95,East,89,17.0,18.0,84,0.00,,,0.02,Wunderground v.1.15,2013-09-12 00:36:00,
2013-09-11 20:37:00,77.6,72.4,29.96,ENE,68,7.0,18.0,84,0.00,,,0.02,Wunderground v.1.15,2013-09-12 00:37:00,
2013-09-11 20:38:00,77.6,72.4,29.96,ENE,68,8.0,18.0,84,0.00,,,0.02,Wunderground v.1.15,2013-09-12 00:38:00,
2013-09-11 20:39:00,77.6,72.0,29.96,ENE,75,10.0,18.0,83,0.00,,,0.02,Wunderground v.1.15,2013-09-12 00:39:00,
2013-09-11 20:41:00,77.4,71.5,29.95,East,79,6.0,14.0,82,0.00,,,0.02,Wunderground v.1.15,2013-09-12 00:41:00,
2013-09-11 20:42:00,77.4,71.5,29.95,ENE,70,4.0,14.0,82,0.00,,,0.02,Wunderground v.1.15,2013-09-12 00:42:00,
2013-09-11 20:43:00,77.3,71.4,29.95,NE,55,10.0,14.0,82,0.00,,,0.02,Wunderground v.1.15,2013-09-12 00:43:00,
2013-09-11 20:44:00,77.0,70.7,29.95,ENE,72,6.0,14.0,81,0.00,,,0.02,Wunderground v.1.15,2013-09-12 00:44:00,
2013-09-11 20:47:00,76.3,70.8,29.95,ENE,73,6.0,14.0,83,0.00,,,0.02,Wunderground v.1.15,2013-09-12 00:47:00,
2013-09-11 20:48:00,75.9,70.7,29.95,ENE,77,9.0,14.0,84,0.00,,,0.02,Wunderground v.1.15,2013-09-12 00:48:00,
2013-09-11 20:49:00,75.1,70.3,29.95,NE,56,4.0,14.0,85,0.00,,,0.03,Wunderground v.1.15,2013-09-12 00:49:00,
2013-09-11 20:52:00,74.4,69.9,29.95,ENE,78,2.0,8.0,86,0.00,,,0.03,Wunderground v.1.15,2013-09-12 00:52:00,
2013-09-11 20:53:00,74.1,70.0,29.95,ENE,68,2.0,8.0,87,0.00,,,0.03,Wunderground v.1.15,2013-09-12 00:53:00,
2013-09-11 20:55:00,73.7,69.9,29.95,ENE,66,2.0,8.0,88,0.00,,,0.03,Wunderground v.1.15,2013-09-12 00:55:00,
2013-09-11 20:57:00,73.4,69.6,29.95,East,80,4.0,9.0,88,0.00,,,0.03,Wunderground v.1.15,2013-09-12 00:57:00,
2013-09-11 20:58:00,73.4,70.0,29.95,ENE,63,2.0,9.0,89,0.00,,,0.03,Wunderground v.1.15,2013-09-12 00:58:00,
2013-09-11 20:59:00,73.3,69.9,29.95,ENE,60,3.0,9.0,89,0.00,,,0.03,Wunderground v.1.15,2013-09-12 00:59:00,
2013-09-11 21:00:00,73.2,69.8,29.95,ENE,60,3.0,9.0,89,0.00,,,0.03,Wunderground v.1.15,2013-09-12 01:00:00,
2013-09-11 21:02:00,73.1,69.7,29.95,East,85,2.0,4.0,89,0.00,,,0.03,Wunderground v.1.15,2013-09-12 01:02:00,
2013-09-11 21:03:00,73.0,69.9,29.95,East,86,1.0,4.0,90,0.00,,,0.03,Wunderground v.1.15,2013-09-12 01:03:00,
2013-09-11 21:04:00,73.0,69.9,29.95,ESE,103,2.0,4.0,90,0.00,,,0.03,Wunderground v.1.15,2013-09-12 01:04:00,
2013-09-11 21:05:00,73.0,69.9,29.95,East,91,3.0,4.0,90,0.00,,,0.03,Wunderground v.1.15,2013-09-12 01:05:00,
2013-09-11 21:07:00,72.8,69.7,29.95,East,89,1.0,4.0,90,0.00,,,0.03,Wunderground v.1.15,2013-09-12 01:07:00,
2013-09-11 21:09:00,72.7,69.6,29.95,ENE,77,4.0,5.0,90,0.00,,,0.03,Wunderground v.1.15,2013-09-12 01:09:00,
2013-09-11 21:10:00,72.7,69.6,29.95,SE,134,2.0,5.0,90,0.00,,,0.03,Wunderground v.1.15,2013-09-12 01:10:00,
2013-09-11 21:12:00,72.7,69.6,29.95,East,79,3.0,6.0,90,0.00,,,0.03,Wunderground v.1.15,2013-09-12 01:12:00,
2013-09-11 21:15:00,72.7,69.6,29.94,ESE,111,2.0,6.0,90,0.00,,,0.03,Wunderground v.1.15,2013-09-12 01:15:00,
2013-09-11 21:16:00,72.7,69.6,29.94,ENE,72,2.0,6.0,90,0.00,,,0.03,Wunderground v.1.15,2013-09-12 01:16:00,
2013-09-11 21:17:00,72.7,69.6,29.94,ENE,71,3.0,6.0,90,0.00,,,0.03,Wunderground v.1.15,2013-09-12 01:17:00,
2013-09-11 21:20:00,72.7,69.6,29.94,ESE,108,4.0,4.0,90,0.00,,,0.03,Wunderground v.1.15,2013-09-12 01:20:00,
2013-09-11 21:21:00,72.7,69.6,29.94,East,86,1.0,4.0,90,0.00,,,0.03,Wunderground v.1.15,2013-09-12 01:21:00,
2013-09-11 21:22:00,72.7,69.6,29.94,ENE,73,2.0,4.0,90,0.00,,,0.03,Wunderground v.1.15,2013-09-12 01:22:00,
2013-09-11 21:25:00,72.7,69.9,29.95,East,95,3.0,4.0,91,0.00,,,0.03,Wunderground v.1.15,2013-09-12 01:25:00,
2013-09-11 21:26:00,72.7,69.9,29.95,SE,136,1.0,4.0,91,0.00,,,0.03,Wunderground v.1.15,2013-09-12 01:26:00,
2013-09-11 21:27:00,72.7,69.9,29.95,East,94,0.0,4.0,91,0.00,,,0.03,Wunderground v.1.15,2013-09-12 01:27:00,
2013-09-11 21:31:00,72.7,69.9,29.95,East,87,2.0,2.0,91,0.00,,,0.03,Wunderground v.1.15,2013-09-12 01:31:00,
2013-09-11 21:32:00,72.7,69.9,29.95,ESE,103,0.0,2.0,91,0.00,,,0.03,Wunderground v.1.15,2013-09-12 01:32:00,
2013-09-11 21:36:00,72.7,69.9,29.95,East,101,1.0,2.0,91,0.00,,,0.03,Wunderground v.1.15,2013-09-12 01:36:00,
2013-09-11 21:37:00,72.7,69.9,29.95,ESE,106,2.0,4.0,91,0.00,,,0.03,Wunderground v.1.15,2013-09-12 01:37:00,
2013-09-11 21:39:00,72.7,69.9,29.96,ESE,105,1.0,4.0,91,0.00,,,0.03,Wunderground v.1.15,2013-09-12 01:39:00,
2013-09-11 21:41:00,72.8,70.0,29.95,East,91,2.0,2.0,91,0.00,,,0.03,Wunderground v.1.15,2013-09-12 01:41:00,
2013-09-11 21:42:00,72.8,70.0,29.96,ESE,106,0.0,2.0,91,0.00,,,0.03,Wunderground v.1.15,2013-09-12 01:42:00,
2013-09-11 21:43:00,72.9,70.1,29.96,ENE,75,2.0,2.0,91,0.00,,,0.03,Wunderground v.1.15,2013-09-12 01:43:00,
2013-09-11 21:44:00,73.0,70.2,29.96,NNE,32,2.0,4.0,91,0.00,,,0.03,Wunderground v.1.15,2013-09-12 01:44:00,
2013-09-11 21:46:00,73.1,70.6,29.96,East,79,1.0,4.0,92,0.00,,,0.03,Wunderground v.1.15,2013-09-12 01:46:00,
2013-09-11 21:47:00,73.1,70.6,29.96,ENE,74,0.0,4.0,92,0.00,,,0.03,Wunderground v.1.15,2013-09-12 01:47:00,
2013-09-11 21:48:00,73.1,70.6,29.96,East,84,2.0,4.0,92,0.00,,,0.03,Wunderground v.1.15,2013-09-12 01:48:00,
2013-09-11 21:49:00,73.1,70.6,29.96,East,82,0.0,4.0,92,0.00,,,0.03,Wunderground v.1.15,2013-09-12 01:49:00,
2013-09-11 21:51:00,73.2,70.7,29.96,East,82,0.0,1.0,92,0.00,,,0.03,Wunderground v.1.15,2013-09-12 01:51:00,
2013-09-11 21:52:00,73.2,70.7,29.96,East,82,1.0,1.0,92,0.00,,,0.03,Wunderground v.1.15,2013-09-12 01:52:00,
2013-09-11 21:53:00,73.2,70.7,29.96,East,90,1.0,2.0,92,0.00,,,0.03,Wunderground v.1.15,2013-09-12 01:53:00,
2013-09-11 21:54:00,73.2,70.7,29.96,East,90,1.0,2.0,92,0.00,,,0.03,Wunderground v.1.15,2013-09-12 01:54:00,
2013-09-11 21:55:00,73.3,70.8,29.96,East,90,1.0,2.0,92,0.00,,,0.03,Wunderground v.1.15,2013-09-12 01:55:00,
2013-09-11 21:56:00,73.3,70.8,29.96,East,91,0.0,2.0,92,0.00,,,0.03,Wunderground v.1.15,2013-09-12 01:56:00,
2013-09-11 21:57:00,73.4,70.9,29.96,SE,127,1.0,2.0,92,0.00,,,0.03,Wunderground v.1.15,2013-09-12 01:57:00,
2013-09-11 21:59:00,73.4,70.9,29.96,ESE,108,2.0,4.0,92,0.00,,,0.03,Wunderground v.1.15,2013-09-12 01:59:00,
2013-09-11 22:00:00,73.5,71.0,29.96,SE,124,3.0,3.0,92,0.00,,,0.03,Wunderground v.1.15,2013-09-12 02:00:00,
2013-09-11 22:01:00,73.5,70.7,29.96,East,101,2.0,4.0,91,0.00,,,0.03,Wunderground v.1.15,2013-09-12 02:01:00,
2013-09-11 22:02:00,73.5,70.7,29.96,ESE,116,2.0,4.0,91,0.00,,,0.03,Wunderground v.1.15,2013-09-12 02:02:00,
2013-09-11 22:05:00,73.7,70.9,29.96,East,83,2.0,4.0,91,0.00,,,0.03,Wunderground v.1.15,2013-09-12 02:05:00,
2013-09-11 22:06:00,73.7,70.9,29.96,East,82,2.0,4.0,91,0.00,,,0.03,Wunderground v.1.15,2013-09-12 02:06:00,
2013-09-11 22:07:00,73.7,70.9,29.96,ENE,68,2.0,4.0,91,0.00,,,0.03,Wunderground v.1.15,2013-09-12 02:07:00,
2013-09-11 22:11:00,73.9,71.1,29.96,ENE,69,2.0,2.0,91,0.00,,,0.03,Wunderground v.1.15,2013-09-12 02:11:00,
2013-09-11 22:12:00,73.9,71.1,29.96,ENE,75,2.0,3.0,91,0.00,,,0.03,Wunderground v.1.15,2013-09-12 02:12:00,
2013-09-11 22:16:00,74.1,71.3,29.96,East,84,3.0,4.0,91,0.00,,,0.03,Wunderground v.1.15,2013-09-12 02:16:00,
2013-09-11 22:17:00,74.1,71.3,29.96,East,82,2.0,4.0,91,0.00,,,0.03,Wunderground v.1.15,2013-09-12 02:17:00,
2013-09-11 22:18:00,74.1,71.3,29.96,ESE,104,0.0,4.0,91,0.00,,,0.03,Wunderground v.1.15,2013-09-12 02:18:00,
2013-09-11 22:21:00,74.2,71.4,29.97,SSE,148,4.0,4.0,91,0.00,,,0.03,Wunderground v.1.15,2013-09-12 02:21:00,
2013-09-11 22:22:00,74.2,71.4,29.97,South,170,4.0,4.0,91,0.00,,,0.03,Wunderground v.1.15,2013-09-12 02:22:00,
2013-09-11 22:23:00,74.2,71.4,29.97,SE,126,1.0,6.0,91,0.00,,,0.03,Wunderground v.1.15,2013-09-12 02:23:00,
2013-09-11 22:26:00,74.2,71.4,29.97,ENE,62,5.0,8.0,91,0.00,,,0.03,Wunderground v.1.15,2013-09-12 02:26:00,
2013-09-11 22:27:00,74.2,71.4,29.97,East,80,4.0,8.0,91,0.00,,,0.03,Wunderground v.1.15,2013-09-12 02:27:00,
2013-09-11 22:28:00,74.2,71.4,29.97,SE,131,2.0,8.0,91,0.00,,,0.03,Wunderground v.1.15,2013-09-12 02:28:00,
2013-09-11 22:29:00,74.3,71.5,29.97,ESE,120,3.0,8.0,91,0.00,,,0.03,Wunderground v.1.15,2013-09-12 02:29:00,
2013-09-11 22:31:00,74.4,71.3,29.97,SE,128,3.0,5.0,90,0.00,,,0.03,Wunderground v.1.15,2013-09-12 02:31:00,
2013-09-11 22:32:00,74.5,71.4,29.97,SE,134,4.0,5.0,90,0.00,,,0.03,Wunderground v.1.15,2013-09-12 02:32:00,
2013-09-11 22:33:00,74.5,71.4,29.97,East,91,1.0,5.0,90,0.00,,,0.03,Wunderground v.1.15,2013-09-12 02:33:00,
2013-09-11 22:34:00,74.5,71.4,29.97,ENE,70,3.0,5.0,90,0.00,,,0.03,Wunderground v.1.15,2013-09-12 02:34:00,
2013-09-11 22:36:00,74.6,71.5,29.97,ENE,73,2.0,7.0,90,0.00,,,0.03,Wunderground v.1.15,2013-09-12 02:36:00,
2013-09-11 22:38:00,74.6,71.5,29.96,East,91,3.0,7.0,90,0.00,,,0.03,Wunderground v.1.15,2013-09-12 02:38:00,
2013-09-11 22:39:00,74.7,71.6,29.97,ESE,108,3.0,7.0,90,0.00,,,0.03,Wunderground v.1.15,2013-09-12 02:39:00,
2013-09-11 22:42:00,74.7,71.6,29.97,East,81,3.0,5.0,90,0.00,,,0.03,Wunderground v.1.15,2013-09-12 02:42:00,
2013-09-11 22:43:00,74.8,71.7,29.97,East,95,4.0,5.0,90,0.00,,,0.03,Wunderground v.1.15,2013-09-12 02:43:00,
2013-09-11 22:45:00,74.7,71.6,29.97,ESE,109,4.0,6.0,90,0.00,,,0.03,Wunderground v.1.15,2013-09-12 02:45:00,
2013-09-11 22:47:00,74.8,71.7,29.97,ESE,111,2.0,6.0,90,0.00,,,0.03,Wunderground v.1.15,2013-09-12 02:47:00,
2013-09-11 22:48:00,74.8,71.7,29.97,ENE,63,3.0,6.0,90,0.00,,,0.03,Wunderground v.1.15,2013-09-12 02:48:00,
2013-09-11 22:49:00,74.8,71.7,29.97,ESE,104,2.0,6.0,90,0.00,,,0.03,Wunderground v.1.15,2013-09-12 02:49:00,
2013-09-11 22:51:00,74.8,71.7,29.97,ESE,119,2.0,5.0,90,0.00,,,0.03,Wunderground v.1.15,2013-09-12 02:51:00,
2013-09-11 22:52:00,74.8,71.7,29.97,ESE,121,2.0,5.0,90,0.00,,,0.03,Wunderground v.1.15,2013-09-12 02:52:00,
2013-09-11 22:53:00,74.8,71.7,29.97,East,89,1.0,5.0,90,0.00,,,0.03,Wunderground v.1.15,2013-09-12 02:53:00,
2013-09-11 22:54:00,74.8,71.7,29.97,ESE,114,1.0,5.0,90,0.00,,,0.03,Wunderground v.1.15,2013-09-12 02:54:00,
2013-09-11 22:55:00,74.8,71.7,29.97,ESE,113,1.0,5.0,90,0.00,,,0.03,Wunderground v.1.15,2013-09-12 02:55:00,
2013-09-11 22:56:00,74.8,71.7,29.97,ESE,114,1.0,5.0,90,0.00,,,0.03,Wunderground v.1.15,2013-09-12 02:56:00,
2013-09-11 22:58:00,74.8,71.7,29.97,SE,128,2.0,5.0,90,0.00,,,0.03,Wunderground v.1.15,2013-09-12 02:58:00,
2013-09-11 22:59:00,74.8,71.7,29.97,ESE,103,1.0,5.0,90,0.00,,,0.03,Wunderground v.1.15,2013-09-12 02:59:00,
2013-09-11 23:00:00,74.7,71.6,29.97,ESE,102,3.0,3.0,90,0.00,,,0.03,Wunderground v.1.15,2013-09-12 03:00:00,
2013-09-11 23:01:00,74.7,71.6,29.97,SE,126,2.0,5.0,90,0.00,,,0.03,Wunderground v.1.15,2013-09-12 03:01:00,
2013-09-11 23:04:00,74.7,71.9,29.97,ENE,58,2.0,5.0,91,0.00,,,0.03,Wunderground v.1.15,2013-09-12 03:04:00,
2013-09-11 23:05:00,74.6,71.8,29.97,East,101,1.0,5.0,91,0.00,,,0.03,Wunderground v.1.15,2013-09-12 03:05:00,
2013-09-11 23:07:00,74.6,71.8,29.97,ESE,113,1.0,5.0,91,0.00,,,0.03,Wunderground v.1.15,2013-09-12 03:07:00,
2013-09-11 23:09:00,74.6,71.8,29.97,ESE,104,0.0,5.0,91,0.00,,,0.03,Wunderground v.1.15,2013-09-12 03:09:00,
2013-09-11 23:10:00,74.6,71.8,29.97,ESE,115,2.0,2.0,91,0.00,,,0.03,Wunderground v.1.15,2013-09-12 03:10:00,
2013-09-11 23:12:00,74.6,71.8,29.97,East,84,3.0,3.0,91,0.00,,,0.03,Wunderground v.1.15,2013-09-12 03:12:00,
2013-09-11 23:14:00,74.6,71.8,29.97,ESE,110,1.0,3.0,91,0.00,,,0.03,Wunderground v.1.15,2013-09-12 03:14:00,
2013-09-11 23:15:00,74.6,71.8,29.97,SE,134,1.0,3.0,91,0.00,,,0.03,Wunderground v.1.15,2013-09-12 03:15:00,
2013-09-11 23:18:00,74.6,71.8,29.97,ESE,109,2.0,3.0,91,0.00,,,0.03,Wunderground v.1.15,2013-09-12 03:18:00,
2013-09-11 23:19:00,74.6,71.8,29.97,East,94,2.0,3.0,91,0.00,,,0.03,Wunderground v.1.15,2013-09-12 03:19:00,
2013-09-11 23:20:00,74.6,71.8,29.97,East,90,0.0,2.0,91,0.00,,,0.03,Wunderground v.1.15,2013-09-12 03:20:00,
2013-09-11 23:23:00,74.6,71.8,29.97,ENE,66,2.0,3.0,91,0.00,,,0.03,Wunderground v.1.15,2013-09-12 03:23:00,
2013-09-11 23:24:00,74.6,71.8,29.97,ENE,75,2.0,3.0,91,0.00,,,0.03,Wunderground v.1.15,2013-09-12 03:24:00,
2013-09-11 23:25:00,74.6,71.8,29.97,ENE,74,1.0,3.0,91,0.00,,,0.03,Wunderground v.1.15,2013-09-12 03:25:00,
2013-09-11 23:26:00,74.6,71.8,29.97,ENE,74,2.0,3.0,91,0.00,,,0.03,Wunderground v.1.15,2013-09-12 03:26:00,
2013-09-11 23:29:00,74.6,71.8,29.97,ESE,110,1.0,3.0,91,0.00,,,0.03,Wunderground v.1.15,2013-09-12 03:29:00,
2013-09-11 23:30:00,74.6,72.1,29.97,ESE,110,0.0,2.0,92,0.00,,,0.03,Wunderground v.1.15,2013-09-12 03:30:00,
2013-09-11 23:31:00,74.5,72.0,29.96,SE,125,2.0,2.0,92,0.00,,,0.03,Wunderground v.1.15,2013-09-12 03:31:00,
2013-09-11 23:34:00,74.5,72.0,29.96,ESE,105,2.0,2.0,92,0.00,,,0.03,Wunderground v.1.15,2013-09-12 03:34:00,
2013-09-11 23:35:00,74.5,72.0,29.96,ESE,106,2.0,2.0,92,0.00,,,0.03,Wunderground v.1.15,2013-09-12 03:35:00,
2013-09-11 23:36:00,74.5,72.0,29.96,East,97,1.0,2.0,92,0.00,,,0.03,Wunderground v.1.15,2013-09-12 03:36:00,
2013-09-11 23:37:00,74.4,71.9,29.96,ESE,104,1.0,2.0,92,0.00,,,0.03,Wunderground v.1.15,2013-09-12 03:37:00,
2013-09-11 23:39:00,74.4,71.9,29.96,East,97,0.0,2.0,92,0.00,,,0.03,Wunderground v.1.15,2013-09-12 03:39:00,
2013-09-11 23:40:00,74.4,71.9,29.96,East,98,1.0,1.0,92,0.00,,,0.03,Wunderground v.1.15,2013-09-12 03:40:00,
2013-09-11 23:41:00,74.4,71.9,29.96,East,97,1.0,1.0,92,0.00,,,0.03,Wunderground v.1.15,2013-09-12 03:41:00,
2013-09-11 23:42:00,74.4,71.9,29.96,East,91,1.0,2.0,92,0.00,,,0.03,Wunderground v.1.15,2013-09-12 03:42:00,
2013-09-11 23:45:00,74.5,72.0,29.96,East,91,0.0,2.0,92,0.00,,,0.03,Wunderground v.1.15,2013-09-12 03:45:00,
2013-09-11 23:48:00,74.5,72.0,29.96,East,91,1.0,2.0,92,0.00,,,0.03,Wunderground v.1.15,2013-09-12 03:48:00,
2013-09-11 23:50:00,74.5,72.0,29.96,East,91,0.0,0.0,92,0.00,,,0.03,Wunderground v.1.15,2013-09-12 03:50:00,
2013-09-11 23:53:00,74.4,71.9,29.96,East,87,1.0,2.0,92,0.00,,,0.03,Wunderground v.1.15,2013-09-12 03:53:00,
2013-09-11 23:54:00,74.4,71.9,29.96,ENE,67,1.0,2.0,92,0.00,,,0.03,Wunderground v.1.15,2013-09-12 03:54:00,
2013-09-11 23:55:00,74.4,71.9,29.96,ENE,67,1.0,2.0,92,0.00,,,0.03,Wunderground v.1.15,2013-09-12 03:55:00,
2013-09-11 23:59:00,74.4,71.9,29.96,ENE,72,1.0,2.0,92,0.00,,,0.03,Wunderground v.1.15,2013-09-12 03:59:00,